| time (UTC) | temp C | wind direction | speed KPH | gust KPH | rain 1hr cm | rain 24hr cm | rain mn cm | humidity % | barometer mb |
| 20260507213656 | 6 | 109 | 20.9 | 30.6 | 0.00 | 0.36 | 0.03 | 61 | 1011.3 |
| 20260507213557 | 6 | 108 | 12.9 | 30.6 | 0.00 | 0.36 | 0.03 | 60 | 1011.4 |
| 20260507213357 | 6 | 119 | 19.3 | 30.6 | 0.00 | 0.36 | 0.03 | 61 | 1011.4 |
| 20260507213257 | 6 | 120 | 19.3 | 30.6 | 0.00 | 0.36 | 0.03 | 61 | 1011.4 |
| 20260507213157 | 6 | 140 | 16.1 | 30.6 | 0.00 | 0.36 | 0.03 | 61 | 1011.4 |
| 20260507213058 | 6 | 153 | 6.4 | 30.6 | 0.00 | 0.36 | 0.03 | 60 | 1011.4 |
| 20260507212959 | 6 | 135 | 20.9 | 30.6 | 0.00 | 0.36 | 0.03 | 61 | 1011.5 |
| 20260507212757 | 6 | 157 | 24.1 | 37.0 | 0.00 | 0.36 | 0.03 | 60 | 1011.5 |
| 20260507212657 | 6 | 139 | 19.3 | 37.0 | 0.00 | 0.36 | 0.03 | 62 | 1011.5 |
| 20260507212459 | 6 | 76 | 16.1 | 37.0 | 0.00 | 0.36 | 0.03 | 63 | 1011.6 |
| 20260507212357 | 6 | 161 | 11.3 | 37.0 | 0.00 | 0.36 | 0.03 | 62 | 1011.5 |
| 20260507212257 | 6 | 140 | 11.3 | 37.0 | 0.00 | 0.36 | 0.03 | 62 | 1011.5 |
| 20260507212157 | 6 | 118 | 12.9 | 37.0 | 0.00 | 0.36 | 0.03 | 63 | 1011.5 |
| 20260507212056 | 6 | 86 | 11.3 | 37.0 | 0.00 | 0.36 | 0.03 | 63 | 1011.6 |
| 20260507211856 | 6 | 136 | 22.5 | 27.4 | 0.00 | 0.36 | 0.03 | 63 | 1011.6 |
| 20260507211757 | 6 | 117 | 16.1 | 29.0 | 0.00 | 0.36 | 0.03 | 63 | 1011.5 |
| 20260507211657 | 6 | 134 | 24.1 | 29.0 | 0.00 | 0.36 | 0.03 | 63 | 1011.6 |
| 20260507211558 | 5 | 130 | 16.1 | 29.0 | 0.00 | 0.36 | 0.03 | 63 | 1011.5 |
| 20260507211459 | 5 | 119 | 17.7 | 29.0 | 0.00 | 0.36 | 0.03 | 63 | 1011.6 |
| 20260507211357 | 5 | 126 | 8.0 | 30.6 | 0.00 | 0.36 | 0.03 | 64 | 1011.6 |
| 20260507211256 | 5 | 174 | 19.3 | 30.6 | 0.00 | 0.36 | 0.03 | 64 | 1011.6 |
| 20260507211156 | 5 | 139 | 16.1 | 30.6 | 0.00 | 0.36 | 0.03 | 63 | 1011.6 |
| 20260507211056 | 5 | 128 | 17.7 | 30.6 | 0.00 | 0.36 | 0.03 | 64 | 1011.5 |
| 20260507210959 | 5 | 109 | 14.5 | 30.6 | 0.00 | 0.36 | 0.03 | 63 | 1011.6 |
| 20260507210856 | 5 | 88 | 22.5 | 30.6 | 0.00 | 0.36 | 0.03 | 63 | 1011.5 |
| 20260507210658 | 5 | 72 | 16.1 | 30.6 | 0.00 | 0.36 | 0.03 | 63 | 1011.5 |
| 20260507210557 | 5 | 107 | 25.7 | 30.6 | 0.00 | 0.36 | 0.03 | 63 | 1011.5 |
| 20260507210357 | 5 | 124 | 14.5 | 30.6 | 0.00 | 0.36 | 0.03 | 64 | 1011.6 |
| 20260507210258 | 5 | 136 | 19.3 | 30.6 | 0.00 | 0.36 | 0.03 | 63 | 1011.6 |
| 20260507210157 | 5 | 139 | 11.3 | 30.6 | 0.00 | 0.36 | 0.03 | 62 | 1011.5 |
| 20260507210057 | 5 | 155 | 11.3 | 30.6 | 0.00 | 0.36 | 0.03 | 61 | 1011.5 |
| 20260507210001 | 5 | 131 | 22.5 | 30.6 | 0.00 | 0.36 | 0.03 | 62 | 1011.5 |
| 20260507205857 | 5 | 163 | 12.9 | 30.6 | 0.00 | 0.36 | 0.03 | 61 | 1011.6 |
| 20260507205757 | 5 | 142 | 22.5 | 30.6 | 0.00 | 0.36 | 0.03 | 61 | 1011.6 |
| 20260507205657 | 5 | 118 | 27.4 | 30.6 | 0.00 | 0.36 | 0.03 | 62 | 1011.6 |
| 20260507205556 | 5 | 132 | 14.5 | 30.6 | 0.00 | 0.36 | 0.03 | 62 | 1011.6 |
| 20260507205458 | 5 | 132 | 20.9 | 30.6 | 0.00 | 0.36 | 0.03 | 62 | 1011.6 |
| 20260507205256 | 5 | 113 | 11.3 | 30.6 | 0.00 | 0.36 | 0.03 | 61 | 1011.6 |
| 20260507205157 | 5 | 122 | 20.9 | 25.7 | 0.00 | 0.36 | 0.03 | 61 | 1011.6 |
| 20260507205057 | 5 | 129 | 11.3 | 25.7 | 0.00 | 0.36 | 0.03 | 62 | 1011.6 |
| 20260507204657 | 5 | 140 | 6.4 | 25.7 | 0.00 | 0.36 | 0.03 | 61 | 1011.6 |
| 20260507204558 | 5 | 104 | 19.3 | 25.7 | 0.00 | 0.36 | 0.03 | 60 | 1011.6 |
| 20260507204458 | 5 | 141 | 12.9 | 24.1 | 0.00 | 0.36 | 0.03 | 60 | 1011.6 |
| 20260507204356 | 5 | 134 | 19.3 | 27.4 | 0.00 | 0.36 | 0.03 | 61 | 1011.6 |
| 20260507204156 | 5 | 123 | 20.9 | 27.4 | 0.00 | 0.36 | 0.03 | 61 | 1011.7 |
| 20260507204056 | 5 | 179 | 17.7 | 27.4 | 0.00 | 0.36 | 0.03 | 60 | 1011.7 |
| 20260507203756 | 5 | 100 | 11.3 | 27.4 | 0.00 | 0.36 | 0.03 | 61 | 1011.6 |
| 20260507203657 | 5 | 122 | 12.9 | 27.4 | 0.00 | 0.36 | 0.03 | 61 | 1011.6 |
| 20260507203557 | 5 | 146 | 16.1 | 27.4 | 0.00 | 0.36 | 0.03 | 60 | 1011.6 |
| 20260507203357 | 5 | 121 | 19.3 | 27.4 | 0.00 | 0.36 | 0.03 | 60 | 1011.7 |
| 20260507203257 | 5 | 123 | 17.7 | 27.4 | 0.00 | 0.36 | 0.03 | 61 | 1011.7 |
| 20260507203157 | 5 | 122 | 8.0 | 27.4 | 0.00 | 0.36 | 0.03 | 61 | 1011.7 |
| 20260507203058 | 5 | 115 | 11.3 | 27.4 | 0.00 | 0.36 | 0.03 | 60 | 1011.7 |
| 20260507202959 | 5 | 130 | 14.5 | 27.4 | 0.00 | 0.36 | 0.03 | 61 | 1011.7 |
| 20260507202756 | 5 | 135 | 12.9 | 27.4 | 0.00 | 0.36 | 0.03 | 59 | 1011.7 |
| 20260507202657 | 5 | 105 | 17.7 | 27.4 | 0.00 | 0.36 | 0.03 | 61 | 1011.7 |
| 20260507202557 | 5 | 101 | 6.4 | 19.3 | 0.00 | 0.36 | 0.03 | 62 | 1011.6 |
| 20260507202459 | 5 | 110 | 6.4 | 19.3 | 0.00 | 0.36 | 0.03 | 62 | 1011.7 |
| 20260507202357 | 5 | 134 | 11.3 | 19.3 | 0.00 | 0.36 | 0.03 | 62 | 1011.7 |
| 20260507202157 | 5 | 150 | 16.1 | 20.9 | 0.00 | 0.36 | 0.03 | 61 | 1011.6 |
| 20260507202057 | 5 | 151 | 12.9 | 20.9 | 0.00 | 0.36 | 0.03 | 62 | 1011.7 |
| 20260507201958 | 5 | 153 | 12.9 | 20.9 | 0.00 | 0.36 | 0.03 | 61 | 1011.7 |
| 20260507201857 | 5 | 180 | 4.8 | 20.9 | 0.00 | 0.36 | 0.03 | 62 | 1011.7 |
| 20260507201756 | 5 | 133 | 8.0 | 20.9 | 0.00 | 0.36 | 0.03 | 61 | 1011.6 |
| 20260507201656 | 5 | 101 | 11.3 | 20.9 | 0.00 | 0.36 | 0.03 | 62 | 1011.7 |
| 20260507201556 | 5 | 156 | 8.0 | 20.9 | 0.00 | 0.36 | 0.03 | 62 | 1011.7 |
| 20260507201458 | 5 | 97 | 14.5 | 20.9 | 0.00 | 0.36 | 0.03 | 63 | 1011.7 |
| 20260507201357 | 5 | 129 | 8.0 | 20.9 | 0.00 | 0.36 | 0.03 | 62 | 1011.7 |
| 20260507201257 | 5 | 128 | 19.3 | 20.9 | 0.00 | 0.36 | 0.03 | 62 | 1011.7 |
| 20260507201157 | 5 | 119 | 14.5 | 30.6 | 0.00 | 0.36 | 0.03 | 62 | 1011.8 |
| 20260507201057 | 5 | 128 | 20.9 | 30.6 | 0.00 | 0.36 | 0.03 | 62 | 1011.8 |
| 20260507200958 | 5 | 136 | 16.1 | 30.6 | 0.00 | 0.36 | 0.03 | 62 | 1011.7 |
| 20260507200857 | 5 | 155 | 6.4 | 30.6 | 0.00 | 0.36 | 0.03 | 62 | 1011.7 |
| 20260507200757 | 5 | 124 | 11.3 | 30.6 | 0.00 | 0.36 | 0.03 | 62 | 1011.7 |
| 20260507200658 | 5 | 114 | 9.7 | 30.6 | 0.00 | 0.36 | 0.03 | 62 | 1011.7 |
| 20260507200556 | 5 | 131 | 8.0 | 30.6 | 0.00 | 0.36 | 0.03 | 62 | 1011.7 |
| 20260507200459 | 5 | 102 | 9.7 | 30.6 | 0.00 | 0.36 | 0.03 | 62 | 1011.8 |
| 20260507200357 | 5 | 120 | 20.9 | 30.6 | 0.00 | 0.36 | 0.03 | 62 | 1011.8 |
| 20260507200257 | 5 | 148 | 9.7 | 25.7 | 0.00 | 0.36 | 0.03 | 62 | 1011.9 |
| 20260507200156 | 5 | 112 | 17.7 | 24.1 | 0.00 | 0.36 | 0.03 | 62 | 1011.8 |
| 20260507200058 | 5 | 122 | 19.3 | 22.5 | 0.00 | 0.36 | 0.03 | 62 | 1011.8 |
| 20260507200000 | 5 | 184 | 9.7 | 22.5 | 0.00 | 0.36 | 0.03 | 62 | 1011.8 |
| 20260507195857 | 5 | 166 | 6.4 | 22.5 | 0.00 | 0.36 | 0.03 | 62 | 1011.8 |
| 20260507195757 | 5 | 149 | 6.4 | 22.5 | 0.00 | 0.36 | 0.03 | 62 | 1011.8 |
| 20260507195656 | 5 | 119 | 16.1 | 25.7 | 0.00 | 0.36 | 0.03 | 62 | 1011.8 |
| 20260507195558 | 5 | 163 | 12.9 | 25.7 | 0.00 | 0.36 | 0.03 | 62 | 1011.9 |
| 20260507195459 | 5 | 111 | 11.3 | 25.7 | 0.00 | 0.36 | 0.03 | 63 | 1011.9 |
| 20260507195356 | 5 | 167 | 6.4 | 25.7 | 0.00 | 0.36 | 0.03 | 62 | 1011.8 |
| 20260507195156 | 5 | 88 | 12.9 | 25.7 | 0.00 | 0.36 | 0.03 | 61 | 1011.9 |
| 20260507195056 | 5 | 147 | 16.1 | 25.7 | 0.00 | 0.36 | 0.03 | 62 | 1011.9 |
| 20260507194959 | 5 | 123 | 6.4 | 25.7 | 0.00 | 0.36 | 0.03 | 62 | 1011.8 |
| 20260507194757 | 5 | 128 | 17.7 | 22.5 | 0.00 | 0.36 | 0.03 | 62 | 1011.9 |
| 20260507194558 | 5 | 111 | 11.3 | 22.5 | 0.00 | 0.36 | 0.03 | 60 | 1011.9 |
| 20260507194457 | 5 | 131 | 17.7 | 22.5 | 0.00 | 0.36 | 0.03 | 61 | 1011.9 |
| 20260507194256 | 5 | 137 | 8.0 | 22.5 | 0.00 | 0.36 | 0.03 | 60 | 1011.9 |
| 20260507194157 | 5 | 133 | 20.9 | 22.5 | 0.00 | 0.36 | 0.03 | 60 | 1012.0 |
| 20260507194056 | 5 | 123 | 12.9 | 22.5 | 0.00 | 0.36 | 0.03 | 60 | 1011.9 |
| 20260507193958 | 5 | 138 | 6.4 | 22.5 | 0.00 | 0.36 | 0.03 | 60 | 1011.9 |
| 20260507193857 | 5 | 58 | 9.7 | 22.5 | 0.00 | 0.36 | 0.03 | 61 | 1011.9 |
| 20260507193757 | 5 | 119 | 4.8 | 24.1 | 0.00 | 0.36 | 0.03 | 60 | 1011.9 |
| 20260507193557 | 5 | 147 | 16.1 | 24.1 | 0.00 | 0.36 | 0.03 | 59 | 1011.9 |
| 20260507193356 | 5 | 134 | 12.9 | 24.1 | 0.00 | 0.36 | 0.03 | 59 | 1011.9 |
| 20260507193256 | 5 | 131 | 16.1 | 24.1 | 0.00 | 0.36 | 0.03 | 59 | 1011.9 |
| 20260507193157 | 5 | 142 | 8.0 | 27.4 | 0.00 | 0.36 | 0.03 | 59 | 1011.9 |
| 20260507193056 | 5 | 119 | 16.1 | 27.4 | 0.00 | 0.36 | 0.03 | 59 | 1011.8 |
| 20260507192958 | 5 | 121 | 11.3 | 27.4 | 0.00 | 0.36 | 0.03 | 59 | 1011.9 |
| 20260507192856 | 5 | 150 | 17.7 | 27.4 | 0.00 | 0.36 | 0.03 | 60 | 1011.9 |
| 20260507192756 | 5 | 94 | 4.8 | 27.4 | 0.00 | 0.36 | 0.03 | 59 | 1011.9 |
| 20260507192658 | 5 | 123 | 16.1 | 27.4 | 0.00 | 0.36 | 0.03 | 60 | 1011.9 |
| 20260507192556 | 5 | 171 | 11.3 | 27.4 | 0.00 | 0.36 | 0.03 | 61 | 1011.8 |
| 20260507192357 | 5 | 130 | 8.0 | 27.4 | 0.00 | 0.36 | 0.03 | 59 | 1011.9 |
| 20260507192257 | 5 | 151 | 14.5 | 25.7 | 0.00 | 0.36 | 0.03 | 60 | 1011.9 |
| 20260507192157 | 5 | 134 | 6.4 | 24.1 | 0.00 | 0.36 | 0.03 | 60 | 1011.9 |
| 20260507192056 | 5 | 103 | 9.7 | 24.1 | 0.00 | 0.36 | 0.03 | 60 | 1011.9 |
| 20260507192000 | 5 | 115 | 17.7 | 24.1 | 0.00 | 0.36 | 0.03 | 61 | 1011.9 |
| 20260507191856 | 5 | 153 | 4.8 | 24.1 | 0.00 | 0.36 | 0.03 | 60 | 1011.9 |
| 20260507191757 | 5 | 107 | 16.1 | 24.1 | 0.00 | 0.36 | 0.03 | 60 | 1011.9 |
| 20260507191657 | 5 | 128 | 12.9 | 24.1 | 0.00 | 0.36 | 0.03 | 61 | 1011.8 |
| 20260507191458 | 5 | 109 | 9.7 | 24.1 | 0.00 | 0.36 | 0.03 | 62 | 1011.9 |
| 20260507191356 | 5 | 140 | 6.4 | 24.1 | 0.00 | 0.36 | 0.03 | 62 | 1011.9 |
| 20260507191257 | 5 | 154 | 14.5 | 22.5 | 0.00 | 0.36 | 0.03 | 62 | 1011.9 |
| 20260507191157 | 5 | 96 | 17.7 | 20.9 | 0.00 | 0.36 | 0.03 | 61 | 1011.9 |
| 20260507191057 | 5 | 125 | 14.5 | 20.9 | 0.00 | 0.36 | 0.03 | 62 | 1011.9 |
| 20260507190857 | 4 | 160 | 9.7 | 22.5 | 0.00 | 0.36 | 0.03 | 62 | 1011.9 |
| 20260507190756 | 4 | 133 | 12.9 | 22.5 | 0.00 | 0.36 | 0.03 | 63 | 1011.9 |
| 20260507190657 | 4 | 121 | 8.0 | 22.5 | 0.00 | 0.36 | 0.03 | 62 | 1011.9 |
| 20260507190556 | 4 | 128 | 8.0 | 22.5 | 0.00 | 0.36 | 0.03 | 63 | 1012.0 |
| 20260507190458 | 4 | 138 | 11.3 | 22.5 | 0.00 | 0.36 | 0.03 | 62 | 1011.9 |
| 20260507190356 | 4 | 117 | 14.5 | 22.5 | 0.00 | 0.36 | 0.03 | 62 | 1012.0 |
| 20260507190257 | 4 | 147 | 9.7 | 22.5 | 0.00 | 0.36 | 0.03 | 62 | 1012.0 |
| 20260507190156 | 4 | 107 | 6.4 | 22.5 | 0.00 | 0.36 | 0.03 | 62 | 1012.1 |
| 20260507190057 | 4 | 134 | 11.3 | 22.5 | 0.00 | 0.36 | 0.03 | 62 | 1012.1 |
| 20260507185757 | 4 | 137 | 6.4 | 24.1 | 0.00 | 0.36 | 0.03 | 62 | 1012.1 |
| 20260507185656 | 4 | 121 | 14.5 | 25.7 | 0.00 | 0.36 | 0.03 | 62 | 1012.1 |
| 20260507185556 | 4 | 144 | 16.1 | 25.7 | 0.00 | 0.36 | 0.03 | 62 | 1012.1 |
| 20260507185457 | 4 | 140 | 16.1 | 25.7 | 0.00 | 0.36 | 0.03 | 62 | 1012.1 |
| 20260507185356 | 4 | 104 | 4.8 | 25.7 | 0.00 | 0.36 | 0.03 | 62 | 1012.1 |
| 20260507185057 | 4 | 150 | 12.9 | 25.7 | 0.00 | 0.36 | 0.03 | 60 | 1012.2 |
| 20260507184958 | 4 | 120 | 14.5 | 25.7 | 0.00 | 0.36 | 0.03 | 60 | 1012.1 |
| 20260507184856 | 5 | 137 | 20.9 | 25.7 | 0.00 | 0.36 | 0.03 | 60 | 1012.2 |
| 20260507184757 | 5 | 144 | 8.0 | 22.5 | 0.00 | 0.36 | 0.03 | 60 | 1012.2 |
| 20260507184657 | 5 | 134 | 3.2 | 22.5 | 0.00 | 0.36 | 0.03 | 61 | 1012.1 |
| 20260507184557 | 4 | 126 | 8.0 | 22.5 | 0.00 | 0.36 | 0.03 | 61 | 1012.2 |
| 20260507184458 | 4 | 121 | 11.3 | 22.5 | 0.00 | 0.36 | 0.03 | 61 | 1012.2 |
| 20260507184156 | 4 | 168 | 8.0 | 33.8 | 0.00 | 0.36 | 0.03 | 60 | 1012.1 |
| 20260507184058 | 4 | 151 | 16.1 | 33.8 | 0.00 | 0.36 | 0.03 | 60 | 1012.2 |
| 20260507183959 | 4 | 137 | 22.5 | 33.8 | 0.00 | 0.36 | 0.03 | 61 | 1012.2 |
| 20260507183756 | 4 | 140 | 8.0 | 33.8 | 0.00 | 0.36 | 0.03 | 62 | 1012.2 |
| 20260507183656 | 4 | 130 | 11.3 | 33.8 | 0.00 | 0.36 | 0.03 | 61 | 1012.2 |
| 20260507183458 | 4 | 152 | 22.5 | 33.8 | 0.00 | 0.36 | 0.03 | 61 | 1012.2 |
| 20260507183356 | 4 | 134 | 12.9 | 25.7 | 0.00 | 0.36 | 0.03 | 61 | 1012.2 |
| 20260507183156 | 4 | 184 | 9.7 | 25.7 | 0.00 | 0.36 | 0.03 | 60 | 1012.2 |
| 20260507183056 | 4 | 145 | 8.0 | 19.3 | 0.00 | 0.36 | 0.03 | 61 | 1012.2 |
| 20260507182857 | 4 | 119 | 8.0 | 19.3 | 0.00 | 0.36 | 0.03 | 61 | 1012.2 |
| 20260507182757 | 4 | 149 | 8.0 | 19.3 | 0.00 | 0.36 | 0.03 | 61 | 1012.2 |
| 20260507182656 | 4 | 169 | 9.7 | 19.3 | 0.00 | 0.36 | 0.03 | 60 | 1012.2 |
| 20260507182556 | 4 | 201 | 11.3 | 19.3 | 0.00 | 0.36 | 0.03 | 60 | 1012.2 |
| 20260507182357 | 4 | 175 | 14.5 | 19.3 | 0.00 | 0.36 | 0.03 | 60 | 1012.2 |
| 20260507182256 | 5 | 165 | 19.3 | 19.3 | 0.00 | 0.36 | 0.03 | 61 | 1012.2 |
| 20260507182156 | 5 | 141 | 8.0 | 16.1 | 0.00 | 0.36 | 0.03 | 61 | 1012.2 |
| 20260507182057 | 5 | 189 | 6.4 | 16.1 | 0.00 | 0.36 | 0.03 | 61 | 1012.2 |
| 20260507181857 | 5 | 123 | 14.5 | 16.1 | 0.00 | 0.36 | 0.03 | 61 | 1012.2 |
| 20260507181757 | 5 | 117 | 11.3 | 16.1 | 0.00 | 0.36 | 0.03 | 61 | 1012.2 |
| 20260507181656 | 5 | 123 | 6.4 | 17.7 | 0.00 | 0.36 | 0.03 | 61 | 1012.2 |
| 20260507181556 | 5 | 149 | 6.4 | 19.3 | 0.00 | 0.36 | 0.03 | 61 | 1012.2 |
| 20260507181357 | 5 | 111 | 9.7 | 19.3 | 0.00 | 0.36 | 0.03 | 61 | 1012.2 |
| 20260507181257 | 5 | 147 | 3.2 | 19.3 | 0.00 | 0.36 | 0.03 | 62 | 1012.2 |
| 20260507181157 | 5 | 144 | 4.8 | 19.3 | 0.00 | 0.36 | 0.03 | 61 | 1012.2 |
| 20260507181057 | 5 | 117 | 6.4 | 20.9 | 0.00 | 0.36 | 0.03 | 61 | 1012.1 |
| 20260507180858 | 5 | 160 | 6.4 | 20.9 | 0.00 | 0.36 | 0.03 | 60 | 1012.1 |
| 20260507180757 | 5 | 104 | 11.3 | 20.9 | 0.00 | 0.36 | 0.03 | 60 | 1012.1 |
| 20260507180657 | 5 | 134 | 12.9 | 20.9 | 0.00 | 0.36 | 0.03 | 59 | 1012.1 |
| 20260507180458 | 5 | 184 | 4.8 | 22.5 | 0.00 | 0.36 | 0.03 | 59 | 1012.1 |
| 20260507180356 | 5 | 146 | 12.9 | 25.7 | 0.00 | 0.36 | 0.03 | 60 | 1012.2 |
| 20260507180256 | 5 | 121 | 12.9 | 25.7 | 0.00 | 0.36 | 0.03 | 60 | 1012.1 |
| 20260507180157 | 5 | 164 | 6.4 | 25.7 | 0.00 | 0.36 | 0.03 | 59 | 1012.1 |
| 20260507180056 | 5 | 158 | 12.9 | 25.7 | 0.00 | 0.36 | 0.03 | 59 | 1012.1 |
| 20260507180001 | 5 | 123 | 14.5 | 25.7 | 0.00 | 0.36 | 0.03 | 60 | 1012.1 |
| 20260507175856 | 5 | 128 | 14.5 | 25.7 | 0.00 | 0.36 | 0.03 | 60 | 1012.1 |
| 20260507175756 | 5 | 132 | 8.0 | 25.7 | 0.00 | 0.36 | 0.03 | 59 | 1012.1 |
| 20260507175556 | 5 | 132 | 22.5 | 25.7 | 0.00 | 0.36 | 0.03 | 60 | 1012.1 |
| 20260507175459 | 5 | 141 | 17.7 | 24.1 | 0.00 | 0.36 | 0.03 | 59 | 1012.1 |
| 20260507175356 | 5 | 175 | 9.7 | 24.1 | 0.00 | 0.36 | 0.03 | 60 | 1012.1 |
| 20260507175258 | 5 | 147 | 16.1 | 24.1 | 0.00 | 0.36 | 0.03 | 61 | 1012.1 |
| 20260507175156 | 5 | 150 | 1.6 | 24.1 | 0.00 | 0.36 | 0.03 | 61 | 1012.0 |
| 20260507175056 | 5 | 173 | 3.2 | 24.1 | 0.00 | 0.36 | 0.03 | 61 | 1012.0 |
| 20260507174958 | 5 | 169 | 6.4 | 27.4 | 0.00 | 0.36 | 0.03 | 61 | 1012.0 |
| 20260507174857 | 5 | 103 | 20.9 | 27.4 | 0.00 | 0.36 | 0.03 | 60 | 1012.0 |
| 20260507174757 | 5 | 113 | 14.5 | 27.4 | 0.00 | 0.36 | 0.03 | 61 | 1012.1 |
| 20260507174656 | 5 | 132 | 6.4 | 27.4 | 0.00 | 0.36 | 0.03 | 61 | 1012.1 |
| 20260507174558 | 5 | 119 | 6.4 | 27.4 | 0.00 | 0.36 | 0.03 | 60 | 1012.1 |
| 20260507174459 | 5 | 108 | 19.3 | 27.4 | 0.00 | 0.36 | 0.03 | 60 | 1012.0 |
| 20260507174156 | 5 | 114 | 11.3 | 27.4 | 0.00 | 0.36 | 0.03 | 59 | 1012.1 |
| 20260507173958 | 5 | 117 | 3.2 | 25.7 | 0.00 | 0.36 | 0.03 | 61 | 1012.0 |
| 20260507173857 | 5 | 177 | 4.8 | 25.7 | 0.00 | 0.36 | 0.03 | 60 | 1012.0 |
| 20260507173757 | 5 | 150 | 9.7 | 25.7 | 0.00 | 0.36 | 0.03 | 59 | 1012.1 |
| 20260507173458 | 5 | 149 | 6.4 | 25.7 | 0.00 | 0.36 | 0.03 | 60 | 1012.0 |
| 20260507173257 | 5 | 155 | 11.3 | 19.3 | 0.00 | 0.36 | 0.03 | 59 | 1012.0 |
| 20260507173157 | 5 | 121 | 19.3 | 19.3 | 0.00 | 0.36 | 0.03 | 60 | 1012.0 |
| 20260507173056 | 5 | 126 | 12.9 | 19.3 | 0.00 | 0.36 | 0.03 | 60 | 1012.0 |
| 20260507172957 | 5 | 108 | 6.4 | 19.3 | 0.00 | 0.36 | 0.03 | 59 | 1012.0 |
| 20260507172857 | 5 | 157 | 17.7 | 20.9 | 0.00 | 0.36 | 0.03 | 58 | 1011.9 |
| 20260507172657 | 5 | 131 | 3.2 | 16.1 | 0.00 | 0.36 | 0.03 | 58 | 1012.0 |
| 20260507172459 | 5 | 154 | 4.8 | 16.1 | 0.00 | 0.36 | 0.03 | 59 | 1011.9 |
| 20260507172356 | 5 | 118 | 14.5 | 16.1 | 0.00 | 0.36 | 0.03 | 59 | 1011.9 |
| 20260507172257 | 5 | 127 | 4.8 | 17.7 | 0.00 | 0.36 | 0.03 | 60 | 1012.0 |
| 20260507172157 | 5 | 120 | 12.9 | 22.5 | 0.00 | 0.36 | 0.03 | 60 | 1011.9 |
| 20260507172056 | 5 | 130 | 1.6 | 22.5 | 0.00 | 0.36 | 0.03 | 60 | 1012.0 |
| 20260507171857 | 5 | 149 | 1.6 | 22.5 | 0.00 | 0.36 | 0.03 | 59 | 1011.9 |
| 20260507171756 | 5 | 149 | 6.4 | 22.5 | 0.00 | 0.36 | 0.03 | 59 | 1011.9 |
| 20260507171656 | 5 | 194 | 8.0 | 22.5 | 0.00 | 0.36 | 0.03 | 59 | 1011.9 |
| 20260507171458 | 5 | 103 | 3.2 | 22.5 | 0.00 | 0.36 | 0.03 | 60 | 1011.9 |
| 20260507171356 | 5 | 126 | 12.9 | 22.5 | 0.00 | 0.36 | 0.03 | 59 | 1011.9 |
| 20260507171156 | 5 | 160 | 6.4 | 19.3 | 0.00 | 0.36 | 0.03 | 59 | 1011.9 |
| 20260507171057 | 5 | 140 | 11.3 | 19.3 | 0.00 | 0.36 | 0.03 | 59 | 1011.9 |
| 20260507170959 | 5 | 139 | 8.0 | 19.3 | 0.00 | 0.36 | 0.03 | 60 | 1012.0 |
| 20260507170856 | 5 | 119 | 11.3 | 19.3 | 0.00 | 0.36 | 0.03 | 60 | 1011.9 |
| 20260507170556 | 5 | 154 | 4.8 | 14.5 | 0.00 | 0.36 | 0.03 | 63 | 1012.1 |
| 20260507170459 | 5 | 161 | 14.5 | 25.7 | 0.00 | 0.36 | 0.03 | 61 | 1011.9 |
| 20260507170356 | 5 | 98 | 6.4 | 27.4 | 0.00 | 0.36 | 0.03 | 60 | 1012.0 |
| 20260507170257 | 5 | 133 | 4.8 | 27.4 | 0.00 | 0.36 | 0.03 | 61 | 1012.1 |
| 20260507170156 | 5 | 109 | 11.3 | 27.4 | 0.00 | 0.36 | 0.03 | 62 | 1012.1 |
| 20260507170057 | 5 | 135 | 8.0 | 27.4 | 0.00 | 0.36 | 0.03 | 64 | 1012.1 |
| 20260507165958 | 4 | 140 | 6.4 | 27.4 | 0.00 | 0.36 | 0.03 | 62 | 1012.1 |
| 20260507165756 | 4 | 161 | 8.0 | 27.4 | 0.00 | 0.36 | 0.03 | 62 | 1012.1 |
| 20260507165657 | 5 | 157 | 8.0 | 27.4 | 0.00 | 0.36 | 0.03 | 61 | 1012.1 |
| 20260507165556 | 4 | 146 | 24.1 | 27.4 | 0.00 | 0.36 | 0.03 | 62 | 1012.1 |
| 20260507165458 | 4 | 121 | 12.9 | 24.1 | 0.00 | 0.36 | 0.03 | 62 | 1012.1 |
| 20260507165256 | 4 | 134 | 4.8 | 16.1 | 0.00 | 0.36 | 0.03 | 63 | 1012.1 |
| 20260507165156 | 4 | 150 | 4.8 | 16.1 | 0.00 | 0.36 | 0.03 | 65 | 1012.1 |
| 20260507165056 | 4 | 169 | 8.0 | 16.1 | 0.00 | 0.36 | 0.03 | 64 | 1012.1 |
| 20260507164959 | 4 | 116 | 6.4 | 16.1 | 0.00 | 0.36 | 0.03 | 64 | 1012.1 |
| 20260507164756 | 4 | 150 | 9.7 | 16.1 | 0.03 | 0.36 | 0.03 | 64 | 1012.1 |
| 20260507164656 | 4 | 118 | 11.3 | 16.1 | 0.03 | 0.36 | 0.03 | 64 | 1012.1 |
| 20260507164556 | 4 | 166 | 9.7 | 12.9 | 0.03 | 0.36 | 0.03 | 66 | 1012.1 |
| 20260507164458 | 4 | 175 | 3.2 | 12.9 | 0.03 | 0.36 | 0.03 | 64 | 1012.1 |
| 20260507164357 | 3 | 176 | 6.4 | 12.9 | 0.03 | 0.36 | 0.03 | 64 | 1012.2 |
| 20260507164257 | 3 | 182 | 6.4 | 12.9 | 0.03 | 0.36 | 0.03 | 65 | 1012.1 |
| 20260507164156 | 4 | 175 | 9.7 | 12.9 | 0.03 | 0.36 | 0.03 | 67 | 1012.1 |
| 20260507164057 | 3 | 186 | 4.8 | 14.5 | 0.03 | 0.36 | 0.03 | 66 | 1012.2 |
| 20260507163959 | 3 | 146 | 6.4 | 14.5 | 0.03 | 0.36 | 0.03 | 66 | 1012.2 |
| 20260507163857 | 3 | 169 | 6.4 | 14.5 | 0.03 | 0.36 | 0.03 | 66 | 1012.2 |
| 20260507163757 | 3 | 184 | 9.7 | 14.5 | 0.03 | 0.36 | 0.03 | 65 | 1012.2 |
| 20260507163656 | 3 | 159 | 6.4 | 14.5 | 0.03 | 0.36 | 0.03 | 65 | 1012.1 |
| 20260507163556 | 3 | 165 | 6.4 | 14.5 | 0.03 | 0.36 | 0.03 | 64 | 1012.2 |
| 20260507163458 | 3 | 169 | 8.0 | 14.5 | 0.03 | 0.36 | 0.03 | 66 | 1012.2 |
| 20260507163356 | 3 | 169 | 8.0 | 14.5 | 0.03 | 0.36 | 0.03 | 66 | 1012.2 |
| 20260507163257 | 3 | 181 | 6.4 | 14.5 | 0.03 | 0.36 | 0.03 | 66 | 1012.2 |
| 20260507163157 | 3 | 163 | 3.2 | 12.9 | 0.03 | 0.36 | 0.03 | 68 | 1012.2 |
| 20260507163056 | 3 | 210 | 1.6 | 12.9 | 0.03 | 0.36 | 0.03 | 66 | 1012.2 |
| 20260507162856 | 3 | 166 | 6.4 | 11.3 | 0.03 | 0.36 | 0.03 | 67 | 1012.2 |
| 20260507162757 | 3 | 147 | 4.8 | 9.7 | 0.03 | 0.36 | 0.03 | 68 | 1012.2 |
| 20260507162657 | 3 | 167 | 1.6 | 9.7 | 0.03 | 0.36 | 0.03 | 67 | 1012.2 |
| 20260507162458 | 3 | 336 | 1.6 | 9.7 | 0.03 | 0.36 | 0.03 | 68 | 1012.2 |
| 20260507162357 | 3 | 186 | 6.4 | 9.7 | 0.03 | 0.36 | 0.03 | 68 | 1012.2 |
| 20260507162256 | 3 | 167 | 6.4 | 11.3 | 0.03 | 0.36 | 0.03 | 69 | 1012.2 |
| 20260507162157 | 3 | 167 | 4.8 | 11.3 | 0.03 | 0.36 | 0.03 | 69 | 1012.2 |
| 20260507161856 | 3 | 176 | 3.2 | 17.7 | 0.03 | 0.36 | 0.03 | 69 | 1012.2 |
| 20260507161758 | 3 | 151 | 6.4 | 17.7 | 0.03 | 0.36 | 0.03 | 70 | 1012.1 |
| 20260507161656 | 3 | 161 | 3.2 | 17.7 | 0.03 | 0.36 | 0.03 | 69 | 1012.1 |
| 20260507161558 | 3 | 168 | 6.4 | 17.7 | 0.03 | 0.36 | 0.03 | 71 | 1012.2 |
| 20260507161458 | 3 | 168 | 6.4 | 17.7 | 0.03 | 0.36 | 0.03 | 70 | 1012.2 |
| 20260507161157 | 3 | 171 | 9.7 | 17.7 | 0.03 | 0.36 | 0.03 | 70 | 1012.2 |
| 20260507161056 | 3 | 165 | 11.3 | 17.7 | 0.03 | 0.36 | 0.03 | 70 | 1012.1 |
| 20260507160958 | 3 | 171 | 6.4 | 11.3 | 0.03 | 0.36 | 0.03 | 72 | 1012.1 |
| 20260507160756 | 3 | 178 | 4.8 | 11.3 | 0.03 | 0.36 | 0.03 | 71 | 1012.1 |
| 20260507160657 | 3 | 181 | 3.2 | 11.3 | 0.03 | 0.36 | 0.03 | 71 | 1012.1 |
| 20260507160556 | 3 | 178 | 4.8 | 11.3 | 0.03 | 0.36 | 0.03 | 71 | 1012.1 |
| 20260507160458 | 3 | 165 | 8.0 | 11.3 | 0.03 | 0.36 | 0.03 | 71 | 1012.1 |
| 20260507160358 | 3 | 145 | 3.2 | 11.3 | 0.03 | 0.36 | 0.03 | 72 | 1012.2 |
| 20260507160256 | 3 | 145 | 3.2 | 11.3 | 0.03 | 0.36 | 0.03 | 71 | 1012.1 |
| 20260507160157 | 3 | 144 | 3.2 | 11.3 | 0.03 | 0.36 | 0.03 | 72 | 1012.1 |
| 20260507160057 | 3 | 165 | 3.2 | 11.3 | 0.03 | 0.36 | 0.03 | 71 | 1012.1 |
| 20260507160000 | 3 | 165 | 6.4 | 11.3 | 0.03 | 0.36 | 0.03 | 71 | 1012.1 |
| 20260507155856 | 3 | 165 | 3.2 | 11.3 | 0.03 | 0.36 | 0.03 | 70 | 1012.1 |
| 20260507155758 | 3 | 165 | 8.0 | 11.3 | 0.03 | 0.36 | 0.03 | 70 | 1012.1 |
| 20260507155657 | 3 | 179 | 6.4 | 12.9 | 0.03 | 0.36 | 0.03 | 70 | 1012.1 |
| 20260507155556 | 3 | 163 | 9.7 | 14.5 | 0.03 | 0.36 | 0.03 | 71 | 1012.1 |
| 20260507155358 | 3 | 159 | 6.4 | 14.5 | 0.03 | 0.36 | 0.03 | 70 | 1012.1 |
| 20260507155256 | 3 | 156 | 4.8 | 14.5 | 0.03 | 0.36 | 0.03 | 71 | 1012.1 |
| 20260507155157 | 3 | 155 | 4.8 | 14.5 | 0.03 | 0.36 | 0.03 | 71 | 1012.1 |
| 20260507155056 | 3 | 146 | 8.0 | 14.5 | 0.03 | 0.36 | 0.03 | 71 | 1012.1 |
| 20260507154958 | 3 | 140 | 6.4 | 14.5 | 0.03 | 0.36 | 0.03 | 71 | 1012.0 |
| 20260507154857 | 3 | 151 | 6.4 | 14.5 | 0.03 | 0.36 | 0.03 | 71 | 1012.1 |
| 20260507154657 | 3 | 162 | 11.3 | 14.5 | 0.00 | 0.33 | 0.00 | 72 | 1012.1 |
| 20260507154557 | 3 | 133 | 1.6 | 11.3 | 0.00 | 0.33 | 0.00 | 74 | 1012.1 |
| 20260507154356 | 3 | 179 | 4.8 | 6.4 | 0.00 | 0.33 | 0.00 | 74 | 1012.0 |
| 20260507154257 | 3 | 179 | 1.6 | 6.4 | 0.00 | 0.33 | 0.00 | 74 | 1012.1 |
| 20260507154056 | 3 | 179 | 1.6 | 12.9 | 0.00 | 0.33 | 0.00 | 73 | 1012.1 |
| 20260507153958 | 3 | 179 | 3.2 | 12.9 | 0.00 | 0.33 | 0.00 | 73 | 1012.1 |
| 20260507153856 | 3 | 179 | 3.2 | 12.9 | 0.00 | 0.33 | 0.00 | 73 | 1012.1 |
| 20260507153757 | 3 | 179 | 3.2 | 12.9 | 0.00 | 0.33 | 0.00 | 73 | 1012.1 |
| 20260507153657 | 3 | 179 | 6.4 | 12.9 | 0.00 | 0.33 | 0.00 | 74 | 1012.1 |
| 20260507153557 | 3 | 179 | 3.2 | 12.9 | 0.00 | 0.33 | 0.00 | 74 | 1012.0 |
| 20260507153458 | 3 | 180 | 3.2 | 12.9 | 0.00 | 0.33 | 0.00 | 73 | 1012.1 |
| 20260507153258 | 3 | 159 | 6.4 | 14.5 | 0.00 | 0.33 | 0.00 | 73 | 1012.0 |
| 20260507153157 | 3 | 159 | 6.4 | 14.5 | 0.00 | 0.33 | 0.00 | 73 | 1012.0 |
| 20260507153057 | 3 | 173 | 3.2 | 14.5 | 0.00 | 0.33 | 0.00 | 73 | 1012.0 |
| 20260507152958 | 3 | 173 | 1.6 | 14.5 | 0.00 | 0.33 | 0.00 | 73 | 1012.0 |
| 20260507152857 | 3 | 161 | 8.0 | 14.5 | 0.00 | 0.33 | 0.00 | 73 | 1012.1 |
| 20260507152757 | 3 | 162 | 6.4 | 12.9 | 0.00 | 0.33 | 0.00 | 73 | 1012.1 |
| 20260507152656 | 3 | 165 | 9.7 | 11.3 | 0.00 | 0.33 | 0.00 | 73 | 1012.1 |
| 20260507152556 | 3 | 179 | 11.3 | 12.9 | 0.00 | 0.33 | 0.00 | 74 | 1012.1 |
| 20260507152458 | 3 | 184 | 4.8 | 12.9 | 0.00 | 0.33 | 0.00 | 73 | 1012.1 |
| 20260507152357 | 3 | 160 | 8.0 | 12.9 | 0.00 | 0.33 | 0.00 | 74 | 1012.1 |
| 20260507152257 | 3 | 158 | 3.2 | 12.9 | 0.00 | 0.33 | 0.00 | 74 | 1012.1 |
| 20260507152157 | 3 | 158 | 3.2 | 12.9 | 0.00 | 0.33 | 0.00 | 74 | 1012.1 |
| 20260507152056 | 3 | 158 | 3.2 | 12.9 | 0.00 | 0.33 | 0.00 | 74 | 1012.1 |
| 20260507151958 | 3 | 158 | 3.2 | 12.9 | 0.00 | 0.33 | 0.00 | 73 | 1012.1 |
| 20260507151857 | 3 | 157 | 3.2 | 12.9 | 0.00 | 0.33 | 0.00 | 73 | 1012.1 |
| 20260507151657 | 3 | 157 | 9.7 | 12.9 | 0.00 | 0.33 | 0.00 | 73 | 1012.1 |
| 20260507151558 | 3 | 158 | 3.2 | 9.7 | 0.00 | 0.33 | 0.00 | 73 | 1012.1 |
| 20260507151358 | 3 | 159 | 3.2 | 9.7 | 0.00 | 0.33 | 0.00 | 72 | 1012.1 |
| 20260507151156 | 3 | 159 | 6.4 | 11.3 | 0.00 | 0.33 | 0.00 | 72 | 1012.1 |
| 20260507151057 | 3 | 168 | 6.4 | 11.3 | 0.00 | 0.33 | 0.00 | 72 | 1012.1 |
| 20260507150958 | 3 | 184 | 9.7 | 14.5 | 0.00 | 0.33 | 0.00 | 72 | 1012.1 |
| 20260507150756 | 3 | 175 | 3.2 | 19.3 | 0.00 | 0.33 | 0.00 | 71 | 1012.0 |
| 20260507150658 | 3 | 170 | 8.0 | 19.3 | 0.00 | 0.33 | 0.00 | 72 | 1012.0 |
| 20260507150557 | 3 | 169 | 8.0 | 19.3 | 0.00 | 0.33 | 0.00 | 72 | 1012.0 |
| 20260507150458 | 3 | 169 | 11.3 | 19.3 | 0.00 | 0.33 | 0.00 | 72 | 1012.0 |
| 20260507150357 | 3 | 163 | 8.0 | 19.3 | 0.00 | 0.33 | 0.00 | 72 | 1012.1 |
| 20260507150256 | 3 | 163 | 8.0 | 19.3 | 0.00 | 0.33 | 0.00 | 72 | 1012.0 |
| 20260507150156 | 3 | 147 | 9.7 | 19.3 | 0.00 | 0.33 | 0.00 | 72 | 1011.9 |
| 20260507150056 | 3 | 129 | 12.9 | 19.3 | 0.00 | 0.33 | 0.00 | 72 | 1012.0 |
| 20260507145958 | 3 | 152 | 11.3 | 19.3 | 0.00 | 0.33 | 0.00 | 72 | 1012.1 |
| 20260507145756 | 3 | 144 | 4.8 | 17.7 | 0.00 | 0.33 | 0.00 | 74 | 1012.0 |
| 20260507145657 | 3 | 212 | 4.8 | 17.7 | 0.00 | 0.33 | 0.00 | 73 | 1012.0 |
| 20260507145556 | 3 | 174 | 9.7 | 17.7 | 0.00 | 0.33 | 0.00 | 74 | 1012.0 |
| 20260507145458 | 3 | 154 | 9.7 | 11.3 | 0.00 | 0.33 | 0.00 | 75 | 1012.0 |
| 20260507145358 | 3 | 169 | 3.2 | 12.9 | 0.00 | 0.33 | 0.00 | 75 | 1012.0 |
| 20260507145157 | 3 | 163 | 6.4 | 16.1 | 0.00 | 0.33 | 0.00 | 76 | 1012.0 |
| 20260507145057 | 3 | 163 | 3.2 | 16.1 | 0.00 | 0.33 | 0.00 | 75 | 1012.0 |
| 20260507144756 | 3 | 167 | 9.7 | 17.7 | 0.00 | 0.33 | 0.00 | 76 | 1012.0 |
| 20260507144656 | 3 | 179 | 6.4 | 17.7 | 0.00 | 0.33 | 0.00 | 76 | 1011.9 |
| 20260507144557 | 3 | 171 | 6.4 | 17.7 | 0.00 | 0.33 | 0.00 | 76 | 1011.9 |
| 20260507144458 | 3 | 172 | 8.0 | 17.7 | 0.00 | 0.33 | 0.00 | 75 | 1012.0 |
| 20260507144357 | 3 | 196 | 8.0 | 17.7 | 0.00 | 0.33 | 0.00 | 76 | 1012.0 |
| 20260507144158 | 2 | 148 | 8.0 | 17.7 | 0.00 | 0.33 | 0.00 | 76 | 1012.0 |
| 20260507144058 | 2 | 182 | 11.3 | 14.5 | 0.00 | 0.33 | 0.00 | 77 | 1012.0 |
| 20260507143959 | 2 | 161 | 8.0 | 14.5 | 0.00 | 0.33 | 0.00 | 77 | 1012.0 |
| 20260507143657 | 3 | 173 | 3.2 | 12.9 | 0.00 | 0.33 | 0.00 | 77 | 1012.0 |
| 20260507143557 | 3 | 173 | 8.0 | 12.9 | 0.00 | 0.33 | 0.00 | 77 | 1012.0 |
| 20260507143457 | 3 | 175 | 6.4 | 12.9 | 0.00 | 0.33 | 0.00 | 77 | 1012.0 |
| 20260507143357 | 3 | 175 | 3.2 | 12.9 | 0.00 | 0.33 | 0.00 | 77 | 1012.0 |
| 20260507143257 | 3 | 170 | 8.0 | 12.9 | 0.00 | 0.33 | 0.00 | 77 | 1012.0 |
| 20260507143157 | 3 | 157 | 8.0 | 11.3 | 0.00 | 0.33 | 0.00 | 77 | 1012.0 |
| 20260507143057 | 3 | 173 | 9.7 | 11.3 | 0.00 | 0.33 | 0.00 | 77 | 1012.0 |
| 20260507142958 | 3 | 163 | 6.4 | 11.3 | 0.00 | 0.33 | 0.00 | 77 | 1012.0 |
| 20260507142856 | 2 | 174 | 8.0 | 11.3 | 0.00 | 0.33 | 0.00 | 77 | 1012.1 |
| 20260507142755 | 2 | 170 | 8.0 | 11.3 | 0.00 | 0.33 | 0.00 | 77 | 1012.0 |
| 20260507142656 | 2 | 159 | 6.4 | 11.3 | 0.00 | 0.33 | 0.00 | 77 | 1012.0 |
| 20260507142459 | 2 | 173 | 3.2 | 14.5 | 0.00 | 0.33 | 0.00 | 77 | 1012.0 |
| 20260507142357 | 3 | 153 | 4.8 | 14.5 | 0.00 | 0.33 | 0.00 | 78 | 1012.0 |
| 20260507142256 | 3 | 171 | 8.0 | 16.1 | 0.00 | 0.33 | 0.00 | 78 | 1012.0 |
| 20260507142157 | 3 | 177 | 3.2 | 16.1 | 0.00 | 0.33 | 0.00 | 78 | 1011.9 |
| 20260507142057 | 3 | 177 | 3.2 | 16.1 | 0.00 | 0.33 | 0.00 | 78 | 1012.0 |
| 20260507141958 | 3 | 177 | 4.8 | 16.1 | 0.00 | 0.33 | 0.00 | 78 | 1012.0 |
| 20260507141756 | 3 | 178 | 6.4 | 16.1 | 0.00 | 0.33 | 0.00 | 77 | 1012.0 |
| 20260507141656 | 2 | 160 | 11.3 | 16.1 | 0.00 | 0.33 | 0.00 | 77 | 1012.0 |
| 20260507141557 | 2 | 173 | 8.0 | 16.1 | 0.00 | 0.33 | 0.00 | 77 | 1012.1 |
| 20260507141458 | 2 | 180 | 6.4 | 16.1 | 0.00 | 0.33 | 0.00 | 77 | 1012.0 |
| 20260507141356 | 2 | 175 | 6.4 | 16.1 | 0.00 | 0.33 | 0.00 | 78 | 1012.0 |
| 20260507141257 | 2 | 147 | 12.9 | 19.3 | 0.00 | 0.33 | 0.00 | 79 | 1012.0 |
| 20260507141157 | 2 | 167 | 8.0 | 19.3 | 0.00 | 0.33 | 0.00 | 79 | 1012.0 |
| 20260507141056 | 2 | 194 | 3.2 | 19.3 | 0.00 | 0.33 | 0.00 | 79 | 1012.0 |
| 20260507140958 | 2 | 194 | 4.8 | 19.3 | 0.00 | 0.33 | 0.00 | 79 | 1012.0 |
| 20260507140857 | 2 | 172 | 3.2 | 19.3 | 0.00 | 0.33 | 0.00 | 78 | 1012.0 |
| 20260507140757 | 2 | 172 | 8.0 | 19.3 | 0.00 | 0.33 | 0.00 | 79 | 1011.9 |
| 20260507140656 | 2 | 171 | 3.2 | 19.3 | 0.00 | 0.33 | 0.00 | 79 | 1012.0 |
| 20260507140556 | 2 | 185 | 8.0 | 19.3 | 0.00 | 0.33 | 0.00 | 80 | 1012.0 |
| 20260507140459 | 2 | 175 | 11.3 | 19.3 | 0.00 | 0.33 | 0.00 | 81 | 1012.0 |
| 20260507140256 | 2 | 171 | 9.7 | 9.7 | 0.00 | 0.33 | 0.00 | 82 | 1012.1 |
| 20260507140157 | 2 | 142 | 6.4 | 9.7 | 0.00 | 0.33 | 0.00 | 83 | 1012.0 |
| 20260507140057 | 2 | 136 | 3.2 | 9.7 | 0.00 | 0.33 | 0.00 | 83 | 1012.0 |
| 20260507140000 | 2 | 192 | 6.4 | 9.7 | 0.00 | 0.33 | 0.00 | 84 | 1012.0 |
| 20260507135857 | 2 | 167 | 4.8 | 8.0 | 0.00 | 0.33 | 0.00 | 84 | 1012.0 |
| 20260507135757 | 2 | 167 | 6.4 | 9.7 | 0.00 | 0.33 | 0.00 | 84 | 1012.1 |
| 20260507135656 | 2 | 167 | 6.4 | 9.7 | 0.00 | 0.33 | 0.00 | 85 | 1012.0 |
| 20260507135557 | 2 | 167 | 4.8 | 9.7 | 0.00 | 0.33 | 0.00 | 85 | 1012.0 |
| 20260507135458 | 2 | 167 | 6.4 | 9.7 | 0.00 | 0.33 | 0.00 | 85 | 1012.1 |
| 20260507135356 | 2 | 167 | 1.6 | 9.7 | 0.00 | 0.33 | 0.00 | 86 | 1012.1 |
| 20260507135257 | 1 | 167 | 8.0 | 9.7 | 0.00 | 0.33 | 0.00 | 87 | 1012.1 |
| 20260507135157 | 1 | 167 | 4.8 | 9.7 | 0.00 | 0.33 | 0.00 | 87 | 1012.1 |
| 20260507134957 | 1 | 167 | 4.8 | 9.7 | 0.00 | 0.33 | 0.00 | 88 | 1012.1 |
| 20260507134856 | 1 | 54 | 1.6 | 4.8 | 0.00 | 0.33 | 0.00 | 89 | 1012.1 |
| 20260507134756 | 1 | 54 | 3.2 | 4.8 | 0.00 | 0.33 | 0.00 | 89 | 1012.1 |
| 20260507134657 | 1 | 54 | 0.0 | 4.8 | 0.00 | 0.33 | 0.00 | 89 | 1012.2 |
| 20260507134557 | 1 | 54 | 3.2 | 4.8 | 0.00 | 0.33 | 0.00 | 89 | 1012.1 |
| 20260507134459 | 1 | 30 | 1.6 | 3.2 | 0.00 | 0.33 | 0.00 | 89 | 1012.1 |
| 20260507134358 | 1 | 30 | 1.6 | 3.2 | 0.00 | 0.33 | 0.00 | 89 | 1012.1 |
| 20260507134256 | 1 | 30 | 0.0 | 3.2 | 0.00 | 0.33 | 0.00 | 89 | 1012.1 |
| 20260507134157 | 1 | 30 | 3.2 | 4.8 | 0.00 | 0.33 | 0.00 | 89 | 1012.2 |
| 20260507134057 | 1 | 30 | 1.6 | 6.4 | 0.00 | 0.33 | 0.00 | 89 | 1012.2 |
| 20260507133856 | 2 | 30 | 0.0 | 8.0 | 0.00 | 0.33 | 0.00 | 89 | 1012.2 |
| 20260507133656 | 2 | 30 | 1.6 | 8.0 | 0.00 | 0.33 | 0.00 | 90 | 1012.2 |
| 20260507133557 | 2 | 30 | 1.6 | 8.0 | 0.00 | 0.33 | 0.00 | 90 | 1012.1 |
| 20260507133459 | 2 | 30 | 0.0 | 8.0 | 0.00 | 0.33 | 0.00 | 91 | 1012.1 |
| 20260507133357 | 2 | 30 | 3.2 | 8.0 | 0.00 | 0.33 | 0.00 | 90 | 1012.1 |
| 20260507133257 | 1 | 30 | 6.4 | 8.0 | 0.00 | 0.33 | 0.00 | 90 | 1012.1 |
| 20260507133156 | 1 | 30 | 4.8 | 8.0 | 0.00 | 0.33 | 0.00 | 90 | 1012.1 |
| 20260507133057 | 1 | 30 | 6.4 | 8.0 | 0.00 | 0.33 | 0.00 | 90 | 1012.1 |
| 20260507132958 | 2 | 30 | 6.4 | 6.4 | 0.00 | 0.33 | 0.00 | 90 | 1012.1 |
| 20260507132857 | 2 | 30 | 4.8 | 4.8 | 0.00 | 0.33 | 0.00 | 89 | 1012.1 |
| 20260507132756 | 1 | 30 | 3.2 | 4.8 | 0.00 | 0.33 | 0.00 | 89 | 1012.1 |
| 20260507132656 | 1 | 30 | 0.0 | 4.8 | 0.00 | 0.33 | 0.00 | 89 | 1012.2 |
| 20260507132557 | 2 | 30 | 3.2 | 4.8 | 0.00 | 0.33 | 0.00 | 89 | 1012.1 |
| 20260507132458 | 2 | 30 | 1.6 | 4.8 | 0.00 | 0.33 | 0.00 | 89 | 1012.1 |
| 20260507132357 | 2 | 30 | 3.2 | 4.8 | 0.00 | 0.33 | 0.00 | 89 | 1012.1 |
| 20260507132256 | 2 | 30 | 3.2 | 4.8 | 0.00 | 0.33 | 0.00 | 89 | 1012.1 |
| 20260507132156 | 2 | 30 | 3.2 | 4.8 | 0.00 | 0.33 | 0.00 | 89 | 1012.1 |
| 20260507132057 | 2 | 30 | 3.2 | 4.8 | 0.00 | 0.33 | 0.00 | 89 | 1012.1 |
| 20260507131959 | 2 | 30 | 1.6 | 3.2 | 0.00 | 0.33 | 0.00 | 88 | 1012.1 |
| 20260507131856 | 2 | 30 | 1.6 | 3.2 | 0.00 | 0.33 | 0.00 | 88 | 1012.1 |
| 20260507131756 | 2 | 30 | 1.6 | 3.2 | 0.00 | 0.33 | 0.00 | 88 | 1012.1 |
| 20260507131657 | 2 | 30 | 1.6 | 3.2 | 0.00 | 0.33 | 0.00 | 88 | 1012.0 |
| 20260507131556 | 2 | 30 | 0.0 | 3.2 | 0.00 | 0.33 | 0.00 | 88 | 1012.0 |
| 20260507131458 | 2 | 30 | 1.6 | 3.2 | 0.00 | 0.33 | 0.00 | 88 | 1012.0 |
| 20260507131356 | 2 | 30 | 1.6 | 4.8 | 0.00 | 0.33 | 0.00 | 88 | 1012.0 |
| 20260507131257 | 2 | 30 | 3.2 | 4.8 | 0.00 | 0.33 | 0.00 | 88 | 1012.0 |
| 20260507131156 | 2 | 30 | 0.0 | 4.8 | 0.00 | 0.33 | 0.00 | 89 | 1012.0 |
| 20260507131057 | 2 | 30 | 0.0 | 4.8 | 0.00 | 0.33 | 0.00 | 89 | 1011.9 |
| 20260507130958 | 2 | 30 | 0.0 | 4.8 | 0.00 | 0.33 | 0.00 | 89 | 1012.0 |
| 20260507130757 | 2 | 30 | 1.6 | 4.8 | 0.00 | 0.33 | 0.00 | 88 | 1011.9 |
| 20260507130556 | 2 | 30 | 3.2 | 6.4 | 0.00 | 0.33 | 0.00 | 88 | 1011.9 |
| 20260507130458 | 2 | 30 | 4.8 | 6.4 | 0.00 | 0.33 | 0.00 | 88 | 1011.9 |
| 20260507130358 | 2 | 30 | 1.6 | 6.4 | 0.00 | 0.33 | 0.00 | 88 | 1011.9 |
| 20260507130256 | 2 | 30 | 1.6 | 6.4 | 0.00 | 0.33 | 0.00 | 87 | 1011.9 |
| 20260507130057 | 2 | 30 | 4.8 | 8.0 | 0.00 | 0.33 | 0.00 | 87 | 1011.9 |
| 20260507125556 | 2 | 31 | 4.8 | 8.0 | 0.00 | 0.33 | 0.00 | 88 | 1011.9 |
| 20260507125458 | 2 | 31 | 4.8 | 8.0 | 0.00 | 0.33 | 0.00 | 87 | 1011.9 |
| 20260507125357 | 2 | 31 | 3.2 | 8.0 | 0.00 | 0.33 | 0.00 | 87 | 1011.9 |
| 20260507125257 | 2 | 30 | 8.0 | 8.0 | 0.00 | 0.33 | 0.00 | 87 | 1011.8 |
| 20260507125156 | 2 | 55 | 4.8 | 9.7 | 0.00 | 0.33 | 0.00 | 87 | 1011.9 |
| 20260507124958 | 2 | 90 | 4.8 | 9.7 | 0.00 | 0.33 | 0.00 | 88 | 1011.9 |
| 20260507124855 | 2 | 90 | 1.6 | 9.7 | 0.00 | 0.33 | 0.00 | 88 | 1011.9 |
| 20260507124756 | 2 | 90 | 4.8 | 9.7 | 0.00 | 0.33 | 0.00 | 88 | 1011.9 |
| 20260507124657 | 2 | 90 | 4.8 | 9.7 | 0.00 | 0.33 | 0.00 | 88 | 1011.9 |
| 20260507124556 | 2 | 90 | 6.4 | 9.7 | 0.00 | 0.33 | 0.00 | 88 | 1011.8 |
| 20260507124459 | 2 | 90 | 6.4 | 9.7 | 0.00 | 0.33 | 0.00 | 88 | 1011.9 |
| 20260507124357 | 2 | 180 | 4.8 | 4.8 | 0.00 | 0.33 | 0.00 | 88 | 1011.8 |
| 20260507124257 | 2 | 180 | 1.6 | 4.8 | 0.00 | 0.33 | 0.00 | 88 | 1011.9 |
| 20260507124156 | 2 | 180 | 4.8 | 6.4 | 0.00 | 0.33 | 0.00 | 88 | 1011.8 |
| 20260507124057 | 2 | 180 | 0.0 | 6.4 | 0.00 | 0.33 | 0.00 | 88 | 1011.9 |
| 20260507123857 | 2 | 180 | 0.0 | 8.0 | 0.00 | 0.33 | 0.00 | 88 | 1011.9 |
| 20260507123756 | 2 | 180 | 0.0 | 9.7 | 0.00 | 0.33 | 0.00 | 88 | 1011.9 |
| 20260507123656 | 2 | 180 | 0.0 | 12.9 | 0.00 | 0.33 | 0.00 | 88 | 1011.9 |
| 20260507123459 | 2 | 180 | 1.6 | 12.9 | 0.00 | 0.33 | 0.00 | 88 | 1011.9 |
| 20260507123356 | 2 | 180 | 0.0 | 12.9 | 0.00 | 0.33 | 0.00 | 88 | 1011.9 |
| 20260507123257 | 2 | 180 | 1.6 | 12.9 | 0.00 | 0.33 | 0.00 | 88 | 1011.9 |
| 20260507123057 | 2 | 193 | 4.8 | 12.9 | 0.00 | 0.33 | 0.00 | 88 | 1011.8 |
| 20260507122958 | 2 | 236 | 4.8 | 16.1 | 0.00 | 0.33 | 0.00 | 88 | 1011.9 |
| 20260507122857 | 2 | 155 | 3.2 | 16.1 | 0.00 | 0.33 | 0.00 | 88 | 1011.9 |
| 20260507122556 | 2 | 190 | 6.4 | 16.1 | 0.00 | 0.33 | 0.00 | 88 | 1011.9 |
| 20260507122459 | 2 | 181 | 3.2 | 16.1 | 0.00 | 0.33 | 0.00 | 88 | 1011.9 |
| 20260507122257 | 2 | 201 | 6.4 | 16.1 | 0.00 | 0.33 | 0.00 | 88 | 1012.0 |
| 20260507122156 | 2 | 180 | 4.8 | 16.1 | 0.00 | 0.33 | 0.00 | 88 | 1012.0 |
| 20260507122056 | 2 | 208 | 6.4 | 16.1 | 0.00 | 0.33 | 0.00 | 88 | 1011.9 |
| 20260507121958 | 2 | 219 | 4.8 | 16.1 | 0.00 | 0.33 | 0.00 | 88 | 1011.9 |
| 20260507121856 | 2 | 223 | 11.3 | 16.1 | 0.00 | 0.33 | 0.00 | 88 | 1012.0 |
| 20260507121757 | 2 | 175 | 1.6 | 12.9 | 0.00 | 0.33 | 0.00 | 88 | 1012.0 |
| 20260507121656 | 2 | 175 | 11.3 | 16.1 | 0.00 | 0.33 | 0.00 | 88 | 1011.9 |
| 20260507121458 | 2 | 180 | 8.0 | 16.1 | 0.00 | 0.33 | 0.00 | 88 | 1011.9 |
| 20260507121357 | 2 | 161 | 11.3 | 16.1 | 0.00 | 0.33 | 0.00 | 88 | 1012.0 |
| 20260507121257 | 2 | 183 | 6.4 | 16.1 | 0.00 | 0.33 | 0.00 | 88 | 1012.0 |
| 20260507121157 | 2 | 206 | 6.4 | 16.1 | 0.00 | 0.33 | 0.00 | 87 | 1012.0 |
| 20260507121056 | 2 | 173 | 8.0 | 16.1 | 0.00 | 0.33 | 0.00 | 88 | 1012.0 |
| 20260507120958 | 2 | 180 | 6.4 | 16.1 | 0.00 | 0.33 | 0.00 | 88 | 1012.0 |
| 20260507120757 | 2 | 188 | 3.2 | 16.1 | 0.00 | 0.33 | 0.00 | 88 | 1012.0 |
| 20260507120657 | 2 | 188 | 4.8 | 16.1 | 0.00 | 0.33 | 0.00 | 88 | 1011.9 |
| 20260507120557 | 2 | 142 | 12.9 | 16.1 | 0.00 | 0.33 | 0.00 | 87 | 1011.9 |
| 20260507120457 | 2 | 165 | 11.3 | 16.1 | 0.00 | 0.33 | 0.00 | 87 | 1012.0 |
| 20260507120356 | 2 | 178 | 8.0 | 16.1 | 0.00 | 0.33 | 0.00 | 87 | 1012.1 |
| 20260507120257 | 2 | 210 | 6.4 | 16.1 | 0.00 | 0.33 | 0.00 | 87 | 1011.9 |
| 20260507120156 | 2 | 166 | 6.4 | 16.1 | 0.00 | 0.33 | 0.00 | 87 | 1012.0 |
| 20260507120056 | 2 | 188 | 11.3 | 19.3 | 0.00 | 0.33 | 0.00 | 87 | 1012.0 |
| 20260507115958 | 2 | 202 | 11.3 | 12.9 | 0.00 | 0.33 | 0.00 | 87 | 1012.0 |
| 20260507115856 | 2 | 217 | 4.8 | 12.9 | 0.00 | 0.33 | 0.00 | 87 | 1012.1 |
| 20260507115656 | 2 | 188 | 3.2 | 14.5 | 0.00 | 0.33 | 0.00 | 87 | 1012.1 |
| 20260507115555 | 2 | 147 | 3.2 | 14.5 | 0.00 | 0.33 | 0.00 | 86 | 1012.1 |
| 20260507115457 | 2 | 147 | 3.2 | 14.5 | 0.00 | 0.33 | 0.00 | 86 | 1012.0 |
| 20260507115256 | 2 | 147 | 3.2 | 14.5 | 0.00 | 0.33 | 0.00 | 86 | 1012.1 |
| 20260507115155 | 2 | 184 | 4.8 | 14.5 | 0.00 | 0.33 | 0.00 | 86 | 1012.0 |
| 20260507115055 | 2 | 176 | 8.0 | 14.5 | 0.00 | 0.33 | 0.00 | 86 | 1012.1 |
| 20260507114956 | 2 | 207 | 12.9 | 14.5 | 0.00 | 0.33 | 0.00 | 86 | 1012.1 |
| 20260507114755 | 2 | 177 | 3.2 | 14.5 | 0.00 | 0.33 | 0.00 | 86 | 1012.1 |
| 20260507114655 | 2 | 209 | 3.2 | 16.1 | 0.00 | 0.33 | 0.00 | 86 | 1012.1 |
| 20260507114555 | 2 | 198 | 6.4 | 16.1 | 0.00 | 0.33 | 0.00 | 86 | 1012.1 |
| 20260507114457 | 2 | 190 | 3.2 | 16.1 | 0.00 | 0.33 | 0.00 | 86 | 1012.1 |
| 20260507114055 | 2 | 198 | 9.7 | 19.3 | 0.00 | 0.33 | 0.00 | 85 | 1012.1 |
| 20260507113958 | 2 | 196 | 6.4 | 19.3 | 0.00 | 0.33 | 0.00 | 85 | 1012.1 |
| 20260507113755 | 2 | 182 | 9.7 | 19.3 | 0.00 | 0.33 | 0.00 | 85 | 1012.2 |
| 20260507113555 | 2 | 214 | 4.8 | 19.3 | 0.00 | 0.33 | 0.00 | 85 | 1012.1 |
| 20260507113457 | 2 | 202 | 6.4 | 19.3 | 0.00 | 0.33 | 0.00 | 85 | 1012.1 |
| 20260507113355 | 2 | 190 | 4.8 | 19.3 | 0.00 | 0.33 | 0.00 | 85 | 1012.1 |
| 20260507113255 | 2 | 215 | 17.7 | 20.9 | 0.00 | 0.33 | 0.00 | 86 | 1012.2 |
| 20260507113156 | 2 | 163 | 9.7 | 24.1 | 0.00 | 0.33 | 0.00 | 86 | 1012.2 |
| 20260507113055 | 2 | 138 | 14.5 | 24.1 | 0.00 | 0.33 | 0.00 | 86 | 1012.1 |
| 20260507112958 | 2 | 209 | 11.3 | 24.1 | 0.00 | 0.33 | 0.00 | 86 | 1012.1 |
| 20260507112855 | 2 | 192 | 6.4 | 24.1 | 0.00 | 0.33 | 0.00 | 86 | 1012.1 |
| 20260507112756 | 2 | 211 | 14.5 | 24.1 | 0.00 | 0.33 | 0.00 | 86 | 1012.1 |
| 20260507112655 | 2 | 201 | 12.9 | 24.1 | 0.00 | 0.33 | 0.00 | 86 | 1012.1 |
| 20260507112556 | 2 | 164 | 11.3 | 24.1 | 0.00 | 0.33 | 0.00 | 86 | 1012.1 |
| 20260507112459 | 2 | 236 | 6.4 | 24.1 | 0.00 | 0.33 | 0.00 | 86 | 1012.1 |
| 20260507112356 | 2 | 161 | 17.7 | 24.1 | 0.00 | 0.33 | 0.00 | 85 | 1012.1 |
| 20260507112056 | 2 | 157 | 14.5 | 20.9 | 0.00 | 0.33 | 0.00 | 85 | 1012.1 |
| 20260507111957 | 2 | 204 | 16.1 | 20.9 | 0.00 | 0.33 | 0.00 | 84 | 1012.1 |
| 20260507111856 | 2 | 215 | 9.7 | 20.9 | 0.00 | 0.33 | 0.00 | 84 | 1012.1 |
| 20260507111656 | 2 | 236 | 14.5 | 20.9 | 0.00 | 0.33 | 0.00 | 84 | 1012.1 |
| 20260507111459 | 2 | 207 | 16.1 | 20.9 | 0.00 | 0.33 | 0.00 | 83 | 1012.0 |
| 20260507111256 | 2 | 167 | 17.7 | 19.3 | 0.00 | 0.33 | 0.00 | 82 | 1012.1 |
| 20260507111156 | 2 | 184 | 8.0 | 19.3 | 0.00 | 0.33 | 0.00 | 82 | 1012.1 |
| 20260507111056 | 2 | 207 | 9.7 | 19.3 | 0.00 | 0.33 | 0.00 | 82 | 1012.1 |
| 20260507110957 | 3 | 178 | 11.3 | 19.3 | 0.00 | 0.33 | 0.00 | 81 | 1012.1 |
| 20260507110754 | 3 | 180 | 16.1 | 16.1 | 0.00 | 0.33 | 0.00 | 80 | 1012.0 |
| 20260507110655 | 3 | 223 | 8.0 | 16.1 | 0.00 | 0.33 | 0.00 | 79 | 1011.9 |
| 20260507110556 | 3 | 188 | 1.6 | 16.1 | 0.00 | 0.33 | 0.00 | 78 | 1012.1 |
| 20260507110256 | 3 | 153 | 4.8 | 17.7 | 0.00 | 0.33 | 0.00 | 75 | 1011.9 |
| 20260507110156 | 3 | 166 | 8.0 | 17.7 | 0.00 | 0.33 | 0.00 | 75 | 1011.9 |
| 20260507105957 | 3 | 192 | 3.2 | 17.7 | 0.00 | 0.33 | 0.00 | 75 | 1011.9 |
| 20260507105855 | 3 | 192 | 6.4 | 17.7 | 0.00 | 0.33 | 0.00 | 74 | 1011.9 |
| 20260507105756 | 3 | 180 | 1.6 | 19.3 | 0.00 | 0.33 | 0.00 | 74 | 1011.9 |
| 20260507105655 | 3 | 165 | 8.0 | 17.7 | 0.00 | 0.33 | 0.00 | 73 | 1011.9 |
| 20260507105555 | 3 | 161 | 12.9 | 19.3 | 0.00 | 0.33 | 0.00 | 73 | 1011.9 |
| 20260507105456 | 3 | 163 | 9.7 | 19.3 | 0.00 | 0.33 | 0.00 | 74 | 1011.8 |
| 20260507105355 | 3 | 164 | 8.0 | 19.3 | 0.00 | 0.33 | 0.00 | 74 | 1011.9 |
| 20260507105255 | 3 | 167 | 8.0 | 19.3 | 0.00 | 0.33 | 0.00 | 73 | 1011.9 |
| 20260507105155 | 3 | 175 | 11.3 | 19.3 | 0.00 | 0.33 | 0.00 | 74 | 1011.9 |
| 20260507105056 | 3 | 170 | 9.7 | 19.3 | 0.00 | 0.33 | 0.00 | 73 | 1011.9 |
| 20260507104956 | 3 | 142 | 9.7 | 17.7 | 0.00 | 0.33 | 0.00 | 74 | 1011.9 |
| 20260507104856 | 3 | 162 | 8.0 | 17.7 | 0.00 | 0.33 | 0.00 | 73 | 1011.9 |
| 20260507104756 | 3 | 138 | 17.7 | 17.7 | 0.00 | 0.33 | 0.00 | 74 | 1011.8 |
| 20260507104656 | 3 | 175 | 6.4 | 16.1 | 0.00 | 0.33 | 0.00 | 74 | 1011.9 |
| 20260507104555 | 3 | 157 | 9.7 | 16.1 | 0.00 | 0.33 | 0.00 | 74 | 1011.8 |
| 20260507104457 | 3 | 163 | 3.2 | 16.1 | 0.00 | 0.33 | 0.00 | 74 | 1011.9 |
| 20260507104356 | 3 | 173 | 8.0 | 16.1 | 0.00 | 0.33 | 0.00 | 75 | 1011.8 |
| 20260507104255 | 3 | 176 | 14.5 | 16.1 | 0.00 | 0.33 | 0.00 | 74 | 1011.8 |
| 20260507104055 | 3 | 140 | 12.9 | 16.1 | 0.00 | 0.33 | 0.00 | 76 | 1011.9 |
| 20260507103855 | 3 | 117 | 3.2 | 22.5 | 0.00 | 0.33 | 0.00 | 77 | 1011.9 |
| 20260507103756 | 3 | 165 | 6.4 | 22.5 | 0.00 | 0.33 | 0.00 | 77 | 1011.8 |
| 20260507103656 | 3 | 157 | 8.0 | 22.5 | 0.00 | 0.33 | 0.00 | 77 | 1011.9 |
| 20260507103556 | 3 | 154 | 6.4 | 22.5 | 0.00 | 0.33 | 0.00 | 77 | 1011.9 |
| 20260507103458 | 2 | 149 | 6.4 | 22.5 | 0.00 | 0.33 | 0.00 | 78 | 1011.9 |
| 20260507103355 | 2 | 144 | 6.4 | 22.5 | 0.00 | 0.33 | 0.00 | 79 | 1011.9 |
| 20260507103255 | 2 | 142 | 6.4 | 22.5 | 0.00 | 0.33 | 0.00 | 80 | 1011.8 |
| 20260507103156 | 2 | 174 | 4.8 | 22.5 | 0.00 | 0.33 | 0.00 | 80 | 1011.8 |
| 20260507103056 | 2 | 125 | 11.3 | 22.5 | 0.00 | 0.33 | 0.00 | 80 | 1011.9 |
| 20260507102957 | 2 | 175 | 12.9 | 12.9 | 0.00 | 0.33 | 0.00 | 82 | 1011.9 |
| 20260507102854 | 2 | 162 | 6.4 | 12.9 | 0.00 | 0.33 | 0.00 | 83 | 1011.8 |
| 20260507102756 | 2 | 169 | 0.0 | 12.9 | 0.00 | 0.33 | 0.00 | 83 | 1011.9 |
| 20260507102655 | 2 | 169 | 6.4 | 12.9 | 0.00 | 0.33 | 0.00 | 83 | 1011.8 |
| 20260507102555 | 2 | 169 | 6.4 | 12.9 | 0.00 | 0.33 | 0.00 | 84 | 1011.8 |
| 20260507102458 | 2 | 166 | 0.0 | 12.9 | 0.00 | 0.33 | 0.00 | 84 | 1011.8 |
| 20260507102356 | 2 | 166 | 0.0 | 12.9 | 0.00 | 0.33 | 0.00 | 84 | 1011.8 |
| 20260507102155 | 2 | 165 | 3.2 | 12.9 | 0.00 | 0.33 | 0.00 | 85 | 1011.8 |
| 20260507102055 | 2 | 151 | 6.4 | 12.9 | 0.00 | 0.33 | 0.00 | 86 | 1011.9 |
| 20260507101957 | 2 | 140 | 12.9 | 12.9 | 0.00 | 0.33 | 0.00 | 87 | 1011.8 |
| 20260507101856 | 2 | 229 | 0.0 | 4.8 | 0.00 | 0.33 | 0.00 | 86 | 1011.9 |
| 20260507101755 | 2 | 229 | 1.6 | 4.8 | 0.00 | 0.33 | 0.00 | 86 | 1011.8 |
| 20260507101555 | 2 | 229 | 0.0 | 4.8 | 0.00 | 0.33 | 0.00 | 86 | 1011.8 |
| 20260507101457 | 2 | 229 | 3.2 | 4.8 | 0.00 | 0.33 | 0.00 | 86 | 1011.8 |
| 20260507101256 | 2 | 180 | 1.6 | 3.2 | 0.00 | 0.33 | 0.00 | 86 | 1011.8 |
| 20260507101154 | 2 | 180 | 1.6 | 4.8 | 0.00 | 0.33 | 0.00 | 85 | 1011.8 |
| 20260507101055 | 2 | 180 | 3.2 | 9.7 | 0.00 | 0.33 | 0.00 | 85 | 1011.8 |
| 20260507100957 | 2 | 180 | 1.6 | 9.7 | 0.00 | 0.33 | 0.00 | 85 | 1011.8 |
| 20260507100756 | 2 | 180 | 3.2 | 11.3 | 0.00 | 0.33 | 0.00 | 85 | 1011.8 |
| 20260507100655 | 2 | 180 | 3.2 | 11.3 | 0.00 | 0.33 | 0.00 | 85 | 1011.7 |
| 20260507100554 | 2 | 180 | 1.6 | 14.5 | 0.00 | 0.33 | 0.00 | 85 | 1011.7 |
| 20260507100457 | 2 | 180 | 1.6 | 16.1 | 0.00 | 0.33 | 0.00 | 85 | 1011.7 |
| 20260507100355 | 2 | 180 | 0.0 | 16.1 | 0.00 | 0.33 | 0.00 | 86 | 1011.7 |
| 20260507100255 | 2 | 217 | 3.2 | 16.1 | 0.00 | 0.33 | 0.00 | 85 | 1011.7 |
| 20260507100156 | 2 | 192 | 0.0 | 16.1 | 0.00 | 0.33 | 0.00 | 85 | 1011.7 |
| 20260507100056 | 2 | 192 | 4.8 | 16.1 | 0.00 | 0.33 | 0.00 | 85 | 1011.7 |
| 20260507095956 | 2 | 193 | 4.8 | 16.1 | 0.00 | 0.33 | 0.00 | 85 | 1011.7 |
| 20260507095855 | 2 | 198 | 3.2 | 17.7 | 0.00 | 0.33 | 0.00 | 85 | 1011.7 |
| 20260507095754 | 2 | 201 | 4.8 | 17.7 | 0.00 | 0.33 | 0.00 | 85 | 1011.7 |
| 20260507095655 | 2 | 219 | 12.9 | 17.7 | 0.00 | 0.33 | 0.00 | 85 | 1011.7 |
| 20260507095555 | 2 | 221 | 9.7 | 17.7 | 0.00 | 0.33 | 0.00 | 84 | 1011.7 |
| 20260507095459 | 2 | 211 | 3.2 | 17.7 | 0.00 | 0.33 | 0.00 | 84 | 1011.7 |
| 20260507095356 | 2 | 182 | 8.0 | 17.7 | 0.00 | 0.33 | 0.00 | 83 | 1011.7 |
| 20260507095255 | 2 | 196 | 3.2 | 17.7 | 0.00 | 0.33 | 0.00 | 83 | 1011.8 |
| 20260507095155 | 2 | 219 | 4.8 | 17.7 | 0.00 | 0.33 | 0.00 | 83 | 1011.8 |
| 20260507094957 | 2 | 188 | 11.3 | 16.1 | 0.00 | 0.33 | 0.00 | 82 | 1011.8 |
| 20260507094855 | 3 | 222 | 11.3 | 14.5 | 0.00 | 0.33 | 0.00 | 82 | 1011.8 |
| 20260507094656 | 3 | 206 | 11.3 | 12.9 | 0.00 | 0.33 | 0.00 | 81 | 1011.8 |
| 20260507094556 | 3 | 165 | 9.7 | 12.9 | 0.00 | 0.33 | 0.00 | 80 | 1011.8 |
| 20260507094457 | 3 | 178 | 8.0 | 11.3 | 0.00 | 0.33 | 0.00 | 79 | 1011.8 |
| 20260507094356 | 3 | 218 | 3.2 | 11.3 | 0.00 | 0.33 | 0.00 | 79 | 1011.8 |
| 20260507094255 | 3 | 226 | 3.2 | 14.5 | 0.00 | 0.33 | 0.00 | 77 | 1011.8 |
| 20260507094156 | 3 | 182 | 3.2 | 14.5 | 0.00 | 0.33 | 0.00 | 77 | 1011.7 |
| 20260507094056 | 3 | 155 | 4.8 | 14.5 | 0.00 | 0.33 | 0.00 | 78 | 1011.7 |
| 20260507093958 | 3 | 170 | 3.2 | 14.5 | 0.00 | 0.33 | 0.00 | 79 | 1011.7 |
| 20260507093855 | 3 | 167 | 1.6 | 14.5 | 0.00 | 0.33 | 0.00 | 79 | 1011.7 |
| 20260507093757 | 3 | 167 | 0.0 | 14.5 | 0.00 | 0.33 | 0.00 | 78 | 1011.7 |
| 20260507093655 | 3 | 167 | 6.4 | 14.5 | 0.00 | 0.33 | 0.00 | 77 | 1011.7 |
| 20260507093555 | 3 | 169 | 8.0 | 14.5 | 0.00 | 0.33 | 0.00 | 77 | 1011.7 |
| 20260507093356 | 3 | 162 | 8.0 | 14.5 | 0.00 | 0.33 | 0.00 | 77 | 1011.7 |
| 20260507093256 | 3 | 176 | 1.6 | 19.3 | 0.00 | 0.33 | 0.00 | 77 | 1011.7 |
| 20260507093155 | 3 | 172 | 3.2 | 19.3 | 0.00 | 0.33 | 0.00 | 77 | 1011.6 |
| 20260507093055 | 3 | 172 | 4.8 | 19.3 | 0.00 | 0.33 | 0.00 | 76 | 1011.6 |
| 20260507092959 | 3 | 173 | 8.0 | 19.3 | 0.00 | 0.33 | 0.00 | 77 | 1011.7 |
| 20260507092855 | 3 | 159 | 12.9 | 19.3 | 0.00 | 0.33 | 0.00 | 77 | 1011.6 |
| 20260507092756 | 3 | 117 | 12.9 | 19.3 | 0.00 | 0.33 | 0.00 | 77 | 1011.6 |
| 20260507092556 | 3 | 140 | 11.3 | 19.3 | 0.00 | 0.33 | 0.00 | 76 | 1011.6 |
| 20260507092457 | 3 | 168 | 16.1 | 19.3 | 0.00 | 0.33 | 0.00 | 77 | 1011.6 |
| 20260507092354 | 3 | 191 | 3.2 | 17.7 | 0.00 | 0.33 | 0.00 | 77 | 1011.5 |
| 20260507092154 | 3 | 163 | 9.7 | 19.3 | 0.00 | 0.33 | 0.00 | 76 | 1011.6 |
| 20260507092055 | 3 | 144 | 16.1 | 19.3 | 0.00 | 0.33 | 0.00 | 77 | 1011.6 |
| 20260507091956 | 3 | 157 | 4.8 | 19.3 | 0.00 | 0.33 | 0.00 | 76 | 1011.7 |
| 20260507091755 | 3 | 184 | 8.0 | 22.5 | 0.00 | 0.33 | 0.00 | 76 | 1011.6 |
| 20260507091655 | 3 | 167 | 8.0 | 24.1 | 0.00 | 0.33 | 0.00 | 76 | 1011.6 |
| 20260507091555 | 3 | 182 | 9.7 | 24.1 | 0.00 | 0.33 | 0.00 | 76 | 1011.6 |
| 20260507091456 | 3 | 137 | 12.9 | 24.1 | 0.00 | 0.33 | 0.00 | 76 | 1011.6 |
| 20260507091357 | 3 | 136 | 14.5 | 24.1 | 0.00 | 0.33 | 0.00 | 77 | 1011.7 |
| 20260507091155 | 3 | 169 | 3.2 | 24.1 | 0.00 | 0.33 | 0.00 | 78 | 1011.6 |
| 20260507091055 | 3 | 168 | 8.0 | 24.1 | 0.00 | 0.33 | 0.00 | 78 | 1011.6 |
| 20260507090957 | 3 | 173 | 8.0 | 24.1 | 0.00 | 0.33 | 0.00 | 77 | 1011.6 |
| 20260507090856 | 3 | 148 | 16.1 | 24.1 | 0.00 | 0.33 | 0.00 | 77 | 1011.5 |
| 20260507090756 | 3 | 171 | 19.3 | 24.1 | 0.00 | 0.33 | 0.00 | 77 | 1011.5 |
| 20260507090555 | 3 | 171 | 14.5 | 22.5 | 0.00 | 0.33 | 0.00 | 77 | 1011.5 |
| 20260507090457 | 3 | 144 | 19.3 | 27.4 | 0.00 | 0.33 | 0.00 | 77 | 1011.6 |
| 20260507090355 | 3 | 123 | 11.3 | 27.4 | 0.00 | 0.33 | 0.00 | 77 | 1011.5 |
| 20260507090255 | 3 | 175 | 11.3 | 27.4 | 0.00 | 0.33 | 0.00 | 77 | 1011.6 |
| 20260507090156 | 3 | 155 | 16.1 | 27.4 | 0.00 | 0.33 | 0.00 | 78 | 1011.5 |
| 20260507090056 | 3 | 165 | 9.7 | 27.4 | 0.00 | 0.33 | 0.00 | 77 | 1011.5 |
| 20260507090002 | 3 | 142 | 17.7 | 27.4 | 0.00 | 0.33 | 0.00 | 77 | 1011.5 |
| 20260507085859 | 3 | 169 | 9.7 | 27.4 | 0.00 | 0.33 | 0.00 | 77 | 1011.5 |
| 20260507085758 | 3 | 168 | 9.7 | 27.4 | 0.00 | 0.33 | 0.00 | 78 | 1011.5 |
| 20260507085658 | 3 | 177 | 11.3 | 27.4 | 0.00 | 0.33 | 0.00 | 78 | 1011.5 |
| 20260507085559 | 3 | 159 | 19.3 | 22.5 | 0.00 | 0.33 | 0.00 | 79 | 1011.5 |
| 20260507085500 | 3 | 140 | 14.5 | 17.7 | 0.00 | 0.33 | 0.00 | 79 | 1011.4 |
| 20260507085359 | 3 | 162 | 9.7 | 17.7 | 0.00 | 0.33 | 0.00 | 79 | 1011.4 |
| 20260507085258 | 3 | 153 | 11.3 | 19.3 | 0.00 | 0.33 | 0.00 | 80 | 1011.4 |
| 20260507085059 | 3 | 173 | 4.8 | 12.9 | 0.00 | 0.33 | 0.00 | 80 | 1011.4 |
| 20260507085000 | 3 | 142 | 4.8 | 19.3 | 0.00 | 0.33 | 0.00 | 81 | 1011.4 |
| 20260507084859 | 3 | 172 | 1.6 | 25.7 | 0.00 | 0.33 | 0.00 | 81 | 1011.4 |
| 20260507084759 | 3 | 229 | 6.4 | 25.7 | 0.00 | 0.33 | 0.00 | 81 | 1011.4 |
| 20260507084558 | 3 | 174 | 4.8 | 25.7 | 0.00 | 0.33 | 0.00 | 81 | 1011.4 |
| 20260507084500 | 3 | 161 | 3.2 | 25.7 | 0.00 | 0.33 | 0.00 | 80 | 1011.4 |
| 20260507084358 | 2 | 136 | 6.4 | 25.7 | 0.00 | 0.33 | 0.00 | 82 | 1011.3 |
| 20260507084259 | 2 | 161 | 9.7 | 25.7 | 0.00 | 0.33 | 0.00 | 83 | 1011.3 |
| 20260507084158 | 2 | 167 | 9.7 | 25.7 | 0.00 | 0.33 | 0.00 | 83 | 1011.3 |
| 20260507084059 | 2 | 155 | 16.1 | 19.3 | 0.00 | 0.33 | 0.00 | 86 | 1011.3 |
| 20260507084001 | 2 | 150 | 1.6 | 14.5 | 0.00 | 0.33 | 0.00 | 86 | 1011.2 |
| 20260507083857 | 2 | 146 | 1.6 | 14.5 | 0.00 | 0.33 | 0.00 | 86 | 1011.3 |
| 20260507083659 | 2 | 87 | 1.6 | 12.9 | 0.00 | 0.33 | 0.00 | 88 | 1011.2 |
| 20260507083459 | 2 | 88 | 1.6 | 12.9 | 0.00 | 0.33 | 0.00 | 89 | 1011.2 |
| 20260507083358 | 2 | 88 | 1.6 | 12.9 | 0.00 | 0.33 | 0.00 | 88 | 1011.2 |
| 20260507083158 | 2 | 86 | 4.8 | 12.9 | 0.00 | 0.33 | 0.00 | 90 | 1011.2 |
| 20260507083059 | 2 | 36 | 3.2 | 9.7 | 0.00 | 0.33 | 0.00 | 90 | 1011.2 |
| 20260507083001 | 2 | 44 | 6.4 | 8.0 | 0.00 | 0.33 | 0.00 | 90 | 1011.2 |
| 20260507082659 | 2 | 34 | 4.8 | 8.0 | 0.00 | 0.33 | 0.00 | 90 | 1011.2 |
| 20260507082500 | 2 | 37 | 4.8 | 8.0 | 0.00 | 0.33 | 0.00 | 91 | 1011.3 |
| 20260507082358 | 2 | 38 | 4.8 | 8.0 | 0.00 | 0.33 | 0.00 | 91 | 1011.2 |
| 20260507082259 | 2 | 32 | 4.8 | 8.0 | 0.00 | 0.33 | 0.00 | 91 | 1011.1 |
| 20260507082158 | 2 | 360 | 6.4 | 8.0 | 0.00 | 0.33 | 0.00 | 91 | 1011.1 |
| 20260507082000 | 2 | 327 | 4.8 | 8.0 | 0.00 | 0.33 | 0.00 | 91 | 1011.2 |
| 20260507081859 | 2 | 322 | 4.8 | 8.0 | 0.00 | 0.33 | 0.00 | 91 | 1011.2 |
| 20260507081758 | 2 | 316 | 4.8 | 8.0 | 0.00 | 0.33 | 0.00 | 91 | 1011.2 |
| 20260507081658 | 2 | 315 | 4.8 | 8.0 | 0.00 | 0.33 | 0.00 | 91 | 1011.2 |
| 20260507081558 | 2 | 318 | 3.2 | 8.0 | 0.00 | 0.33 | 0.00 | 91 | 1011.2 |
| 20260507081459 | 2 | 20 | 6.4 | 8.0 | 0.00 | 0.33 | 0.00 | 91 | 1011.2 |
| 20260507081359 | 2 | 20 | 3.2 | 8.0 | 0.00 | 0.33 | 0.00 | 91 | 1011.2 |
| 20260507081258 | 2 | 18 | 3.2 | 9.7 | 0.00 | 0.33 | 0.00 | 91 | 1011.2 |
| 20260507081200 | 2 | 18 | 4.8 | 9.7 | 0.00 | 0.33 | 0.00 | 91 | 1011.1 |
| 20260507081059 | 2 | 19 | 6.4 | 9.7 | 0.00 | 0.33 | 0.00 | 91 | 1011.2 |
| 20260507080959 | 2 | 28 | 4.8 | 9.7 | 0.00 | 0.33 | 0.00 | 91 | 1011.2 |
| 20260507080858 | 2 | 28 | 6.4 | 9.7 | 0.00 | 0.33 | 0.00 | 91 | 1011.1 |
| 20260507080759 | 2 | 28 | 4.8 | 9.7 | 0.00 | 0.33 | 0.00 | 91 | 1011.1 |
| 20260507080659 | 2 | 27 | 6.4 | 9.7 | 0.00 | 0.33 | 0.00 | 91 | 1011.1 |
| 20260507080557 | 2 | 26 | 6.4 | 9.7 | 0.00 | 0.33 | 0.00 | 91 | 1011.1 |
| 20260507080459 | 2 | 26 | 8.0 | 9.7 | 0.00 | 0.33 | 0.00 | 91 | 1011.2 |
| 20260507080358 | 2 | 44 | 3.2 | 14.5 | 0.00 | 0.33 | 0.00 | 91 | 1011.1 |
| 20260507080259 | 2 | 44 | 4.8 | 14.5 | 0.00 | 0.33 | 0.00 | 90 | 1011.1 |
| 20260507080159 | 2 | 44 | 6.4 | 14.5 | 0.00 | 0.33 | 0.00 | 90 | 1011.2 |
| 20260507080058 | 2 | 45 | 4.8 | 14.5 | 0.00 | 0.33 | 0.00 | 91 | 1011.1 |
| 20260507080005 | 2 | 45 | 6.4 | 14.5 | 0.00 | 0.33 | 0.00 | 91 | 1011.1 |
| 20260507075758 | 2 | 40 | 6.4 | 14.5 | 0.00 | 0.33 | 0.33 | 91 | 1011.1 |
| 20260507075658 | 2 | 38 | 4.8 | 14.5 | 0.00 | 0.33 | 0.33 | 90 | 1011.1 |
| 20260507075557 | 2 | 23 | 9.7 | 14.5 | 0.00 | 0.33 | 0.33 | 90 | 1011.1 |
| 20260507075501 | 2 | 36 | 9.7 | 12.9 | 0.00 | 0.33 | 0.33 | 89 | 1011.1 |
| 20260507075358 | 2 | 46 | 6.4 | 9.7 | 0.00 | 0.33 | 0.33 | 89 | 1011.1 |
| 20260507075259 | 2 | 46 | 9.7 | 9.7 | 0.00 | 0.33 | 0.33 | 89 | 1011.1 |
| 20260507075059 | 2 | 9 | 4.8 | 8.0 | 0.00 | 0.33 | 0.33 | 89 | 1011.1 |
| 20260507075000 | 2 | 47 | 1.6 | 8.0 | 0.00 | 0.33 | 0.33 | 89 | 1011.1 |
| 20260507074859 | 2 | 47 | 6.4 | 8.0 | 0.00 | 0.33 | 0.33 | 89 | 1011.1 |
| 20260507074759 | 2 | 36 | 6.4 | 8.0 | 0.03 | 0.33 | 0.33 | 89 | 1011.0 |
| 20260507074659 | 2 | 5 | 4.8 | 8.0 | 0.03 | 0.33 | 0.33 | 89 | 1011.1 |
| 20260507074559 | 2 | 9 | 4.8 | 8.0 | 0.03 | 0.33 | 0.33 | 89 | 1011.1 |
| 20260507074501 | 2 | 360 | 4.8 | 8.0 | 0.03 | 0.33 | 0.33 | 88 | 1011.0 |
| 20260507074358 | 2 | 355 | 6.4 | 8.0 | 0.03 | 0.33 | 0.33 | 88 | 1011.0 |
| 20260507074259 | 2 | 329 | 8.0 | 8.0 | 0.03 | 0.33 | 0.33 | 88 | 1011.0 |
| 20260507074058 | 2 | 142 | 3.2 | 8.0 | 0.03 | 0.33 | 0.33 | 87 | 1011.1 |
| 20260507074003 | 2 | 142 | 1.6 | 8.0 | 0.05 | 0.33 | 0.33 | 86 | 1011.0 |
| 20260507073858 | 2 | 142 | 1.6 | 8.0 | 0.05 | 0.33 | 0.33 | 87 | 1011.0 |
| 20260507073759 | 2 | 142 | 6.4 | 9.7 | 0.05 | 0.33 | 0.33 | 88 | 1011.1 |
| 20260507073658 | 2 | 247 | 3.2 | 6.4 | 0.05 | 0.33 | 0.33 | 88 | 1010.9 |
| 20260507073500 | 2 | 230 | 4.8 | 6.4 | 0.05 | 0.33 | 0.33 | 88 | 1010.9 |
| 20260507073359 | 2 | 227 | 0.0 | 6.4 | 0.05 | 0.33 | 0.33 | 88 | 1011.0 |
| 20260507073257 | 2 | 227 | 1.6 | 8.0 | 0.05 | 0.33 | 0.33 | 88 | 1011.0 |
| 20260507073157 | 2 | 263 | 1.6 | 11.3 | 0.05 | 0.33 | 0.33 | 88 | 1011.0 |
| 20260507073058 | 2 | 252 | 3.2 | 11.3 | 0.05 | 0.33 | 0.33 | 88 | 1011.0 |
| 20260507072858 | 2 | 251 | 1.6 | 11.3 | 0.05 | 0.33 | 0.33 | 87 | 1011.0 |
| 20260507072758 | 2 | 251 | 1.6 | 11.3 | 0.05 | 0.33 | 0.33 | 87 | 1011.0 |
| 20260507072659 | 2 | 251 | 0.0 | 11.3 | 0.05 | 0.33 | 0.33 | 87 | 1011.0 |
| 20260507072500 | 2 | 251 | 8.0 | 11.3 | 0.05 | 0.33 | 0.33 | 85 | 1010.9 |
| 20260507072058 | 2 | 82 | 8.0 | 11.3 | 0.08 | 0.33 | 0.33 | 88 | 1010.8 |
| 20260507072001 | 2 | 279 | 1.6 | 6.4 | 0.08 | 0.33 | 0.33 | 88 | 1010.8 |
| 20260507071859 | 2 | 279 | 1.6 | 6.4 | 0.08 | 0.33 | 0.33 | 88 | 1010.8 |
| 20260507071758 | 2 | 279 | 6.4 | 6.4 | 0.08 | 0.33 | 0.33 | 88 | 1010.9 |
| 20260507071658 | 2 | 198 | 0.0 | 3.2 | 0.08 | 0.33 | 0.33 | 88 | 1010.9 |
| 20260507071558 | 2 | 198 | 3.2 | 3.2 | 0.08 | 0.33 | 0.33 | 88 | 1010.7 |
| 20260507071500 | 2 | 198 | 1.6 | 3.2 | 0.08 | 0.33 | 0.33 | 87 | 1010.7 |
| 20260507071358 | 2 | 198 | 1.6 | 3.2 | 0.08 | 0.33 | 0.33 | 88 | 1010.7 |
| 20260507071258 | 2 | 198 | 0.0 | 3.2 | 0.08 | 0.33 | 0.33 | 88 | 1010.7 |
| 20260507071158 | 2 | 198 | 3.2 | 3.2 | 0.08 | 0.33 | 0.33 | 88 | 1010.7 |
| 20260507071000 | 2 | 165 | 1.6 | 9.7 | 0.08 | 0.33 | 0.33 | 88 | 1010.7 |
| 20260507070858 | 2 | 165 | 1.6 | 9.7 | 0.08 | 0.33 | 0.33 | 89 | 1010.7 |
| 20260507070759 | 2 | 163 | 1.6 | 9.7 | 0.08 | 0.33 | 0.33 | 89 | 1010.7 |
| 20260507070659 | 2 | 161 | 1.6 | 9.7 | 0.08 | 0.33 | 0.33 | 89 | 1010.7 |
| 20260507070558 | 2 | 161 | 1.6 | 9.7 | 0.08 | 0.33 | 0.33 | 88 | 1010.7 |
| 20260507070500 | 2 | 161 | 1.6 | 9.7 | 0.08 | 0.33 | 0.33 | 88 | 1010.7 |
| 20260507070359 | 2 | 161 | 0.0 | 9.7 | 0.08 | 0.33 | 0.33 | 88 | 1010.7 |
| 20260507070257 | 2 | 161 | 6.4 | 9.7 | 0.10 | 0.33 | 0.33 | 89 | 1010.7 |
| 20260507070158 | 2 | 238 | 3.2 | 4.8 | 0.10 | 0.33 | 0.33 | 88 | 1010.7 |
| 20260507065959 | 2 | 225 | 3.2 | 4.8 | 0.10 | 0.33 | 0.33 | 89 | 1010.7 |
| 20260507065758 | 2 | 224 | 1.6 | 4.8 | 0.10 | 0.33 | 0.33 | 88 | 1010.7 |
| 20260507065658 | 2 | 224 | 0.0 | 4.8 | 0.10 | 0.33 | 0.33 | 88 | 1010.7 |
| 20260507065558 | 2 | 224 | 1.6 | 6.4 | 0.10 | 0.33 | 0.33 | 88 | 1010.8 |
| 20260507065505 | 2 | 224 | 3.2 | 12.9 | 0.10 | 0.33 | 0.33 | 88 | 1010.7 |
| 20260507065258 | 2 | 224 | 3.2 | 12.9 | 0.10 | 0.33 | 0.33 | 88 | 1010.7 |
| 20260507065158 | 2 | 224 | 0.0 | 12.9 | 0.10 | 0.33 | 0.33 | 88 | 1010.7 |
| 20260507065058 | 2 | 203 | 1.6 | 12.9 | 0.10 | 0.33 | 0.33 | 88 | 1010.7 |
| 20260507065000 | 2 | 203 | 1.6 | 12.9 | 0.10 | 0.33 | 0.33 | 88 | 1010.7 |
| 20260507064858 | 2 | 203 | 3.2 | 12.9 | 0.10 | 0.33 | 0.33 | 88 | 1010.6 |
| 20260507064658 | 2 | 204 | 1.6 | 12.9 | 0.08 | 0.30 | 0.30 | 88 | 1010.6 |
| 20260507064559 | 2 | 145 | 9.7 | 12.9 | 0.08 | 0.30 | 0.30 | 89 | 1010.6 |
| 20260507064358 | 2 | 161 | 8.0 | 11.3 | 0.08 | 0.30 | 0.30 | 90 | 1010.7 |
| 20260507064258 | 2 | 162 | 6.4 | 11.3 | 0.08 | 0.30 | 0.30 | 91 | 1010.7 |
| 20260507064159 | 2 | 182 | 4.8 | 9.7 | 0.08 | 0.30 | 0.30 | 91 | 1010.7 |
| 20260507064059 | 2 | 78 | 1.6 | 9.7 | 0.08 | 0.30 | 0.30 | 92 | 1010.7 |
| 20260507064000 | 2 | 78 | 3.2 | 9.7 | 0.05 | 0.28 | 0.28 | 92 | 1010.7 |
| 20260507063858 | 2 | 78 | 3.2 | 9.7 | 0.05 | 0.28 | 0.28 | 92 | 1010.6 |
| 20260507063759 | 2 | 78 | 3.2 | 9.7 | 0.05 | 0.28 | 0.28 | 92 | 1010.7 |
| 20260507063659 | 2 | 78 | 1.6 | 9.7 | 0.05 | 0.28 | 0.28 | 92 | 1010.7 |
| 20260507063359 | 2 | 108 | 1.6 | 4.8 | 0.05 | 0.28 | 0.28 | 92 | 1010.6 |
| 20260507063258 | 2 | 108 | 0.0 | 3.2 | 0.05 | 0.28 | 0.28 | 92 | 1010.6 |
| 20260507063059 | 2 | 108 | 0.0 | 3.2 | 0.05 | 0.28 | 0.28 | 92 | 1010.6 |
| 20260507062859 | 2 | 108 | 1.6 | 3.2 | 0.05 | 0.28 | 0.28 | 92 | 1010.6 |
| 20260507062658 | 2 | 108 | 1.6 | 3.2 | 0.05 | 0.28 | 0.28 | 92 | 1010.6 |
| 20260507062558 | 2 | 108 | 0.0 | 3.2 | 0.05 | 0.28 | 0.28 | 92 | 1010.6 |
| 20260507062501 | 2 | 108 | 1.6 | 3.2 | 0.05 | 0.28 | 0.28 | 92 | 1010.6 |
| 20260507062359 | 2 | 108 | 1.6 | 3.2 | 0.05 | 0.28 | 0.28 | 91 | 1010.6 |
| 20260507062157 | 2 | 108 | 0.0 | 3.2 | 0.03 | 0.25 | 0.25 | 91 | 1010.5 |
| 20260507062058 | 2 | 108 | 0.0 | 3.2 | 0.03 | 0.25 | 0.25 | 91 | 1010.6 |
| 20260507062000 | 2 | 108 | 0.0 | 3.2 | 0.03 | 0.25 | 0.25 | 91 | 1010.5 |
| 20260507061858 | 2 | 108 | 3.2 | 3.2 | 0.03 | 0.25 | 0.25 | 91 | 1010.5 |
| 20260507061659 | 2 | 108 | 0.0 | 3.2 | 0.03 | 0.25 | 0.25 | 91 | 1010.5 |
| 20260507061559 | 2 | 108 | 0.0 | 3.2 | 0.03 | 0.25 | 0.25 | 91 | 1010.5 |
| 20260507061502 | 2 | 108 | 1.6 | 3.2 | 0.03 | 0.25 | 0.25 | 91 | 1010.5 |
| 20260507061259 | 2 | 108 | 3.2 | 3.2 | 0.03 | 0.25 | 0.25 | 91 | 1010.5 |
| 20260507061159 | 2 | 108 | 1.6 | 4.8 | 0.03 | 0.25 | 0.25 | 91 | 1010.5 |
| 20260507061000 | 2 | 108 | 1.6 | 4.8 | 0.03 | 0.25 | 0.25 | 91 | 1010.5 |
| 20260507060859 | 2 | 108 | 0.0 | 4.8 | 0.03 | 0.25 | 0.25 | 91 | 1010.5 |
| 20260507060758 | 2 | 108 | 1.6 | 4.8 | 0.03 | 0.25 | 0.25 | 91 | 1010.5 |
| 20260507060659 | 2 | 108 | 3.2 | 4.8 | 0.03 | 0.25 | 0.25 | 91 | 1010.5 |
| 20260507060558 | 2 | 108 | 1.6 | 4.8 | 0.03 | 0.25 | 0.25 | 91 | 1010.5 |
| 20260507060459 | 2 | 108 | 0.0 | 4.8 | 0.03 | 0.25 | 0.25 | 91 | 1010.5 |
| 20260507060259 | 2 | 108 | 3.2 | 3.2 | 0.03 | 0.23 | 0.23 | 91 | 1010.5 |
| 20260507060158 | 2 | 108 | 1.6 | 1.6 | 0.03 | 0.23 | 0.23 | 91 | 1010.5 |
| 20260507055758 | 2 | 108 | 0.0 | 6.4 | 0.03 | 0.23 | 0.23 | 90 | 1010.4 |
| 20260507055659 | 2 | 108 | 0.0 | 6.4 | 0.03 | 0.23 | 0.23 | 90 | 1010.4 |
| 20260507055558 | 2 | 108 | 0.0 | 6.4 | 0.03 | 0.23 | 0.23 | 90 | 1010.4 |
| 20260507055500 | 2 | 108 | 0.0 | 6.4 | 0.03 | 0.23 | 0.23 | 90 | 1010.4 |
| 20260507055358 | 2 | 108 | 0.0 | 6.4 | 0.03 | 0.23 | 0.23 | 91 | 1010.3 |
| 20260507055258 | 2 | 108 | 1.6 | 6.4 | 0.03 | 0.23 | 0.23 | 91 | 1010.3 |
| 20260507055201 | 2 | 108 | 3.2 | 6.4 | 0.03 | 0.23 | 0.23 | 91 | 1010.4 |
| 20260507055057 | 2 | 109 | 3.2 | 6.4 | 0.03 | 0.23 | 0.23 | 91 | 1010.3 |
| 20260507055000 | 2 | 142 | 3.2 | 4.8 | 0.03 | 0.23 | 0.23 | 91 | 1010.3 |
| 20260507054858 | 2 | 144 | 3.2 | 4.8 | 0.03 | 0.23 | 0.23 | 91 | 1010.3 |
| 20260507054758 | 2 | 144 | 3.2 | 3.2 | 0.03 | 0.23 | 0.23 | 92 | 1010.3 |
| 20260507054658 | 2 | 144 | 0.0 | 3.2 | 0.03 | 0.23 | 0.23 | 92 | 1010.3 |
| 20260507054557 | 2 | 144 | 0.0 | 3.2 | 0.03 | 0.23 | 0.23 | 92 | 1010.3 |
| 20260507054500 | 2 | 144 | 0.0 | 3.2 | 0.03 | 0.23 | 0.23 | 92 | 1010.3 |
| 20260507054358 | 2 | 144 | 0.0 | 3.2 | 0.03 | 0.23 | 0.23 | 92 | 1010.3 |
| 20260507054259 | 2 | 144 | 0.0 | 3.2 | 0.03 | 0.23 | 0.23 | 92 | 1010.3 |
| 20260507054159 | 2 | 144 | 0.0 | 3.2 | 0.03 | 0.23 | 0.23 | 91 | 1010.2 |
| 20260507054058 | 2 | 144 | 0.0 | 3.2 | 0.03 | 0.23 | 0.23 | 91 | 1010.2 |
| 20260507054003 | 2 | 144 | 0.0 | 3.2 | 0.03 | 0.23 | 0.23 | 91 | 1010.2 |
| 20260507053858 | 2 | 144 | 0.0 | 3.2 | 0.03 | 0.23 | 0.23 | 92 | 1010.2 |
| 20260507053758 | 2 | 144 | 1.6 | 3.2 | 0.03 | 0.23 | 0.23 | 92 | 1010.3 |
| 20260507053658 | 2 | 144 | 0.0 | 3.2 | 0.03 | 0.23 | 0.23 | 92 | 1010.2 |
| 20260507053500 | 2 | 144 | 0.0 | 3.2 | 0.03 | 0.23 | 0.23 | 91 | 1010.2 |
| 20260507053359 | 2 | 144 | 1.6 | 3.2 | 0.03 | 0.23 | 0.23 | 91 | 1010.2 |
| 20260507053258 | 2 | 144 | 1.6 | 3.2 | 0.03 | 0.23 | 0.23 | 91 | 1010.2 |
| 20260507053158 | 2 | 144 | 1.6 | 3.2 | 0.03 | 0.23 | 0.23 | 91 | 1010.2 |
| 20260507053058 | 2 | 144 | 3.2 | 3.2 | 0.03 | 0.23 | 0.23 | 91 | 1010.2 |
| 20260507053001 | 2 | 144 | 1.6 | 3.2 | 0.03 | 0.23 | 0.23 | 91 | 1010.2 |
| 20260507052859 | 2 | 144 | 0.0 | 3.2 | 0.03 | 0.23 | 0.23 | 91 | 1010.2 |
| 20260507052757 | 2 | 144 | 1.6 | 3.2 | 0.03 | 0.23 | 0.23 | 91 | 1010.2 |
| 20260507052700 | 2 | 144 | 1.6 | 3.2 | 0.03 | 0.23 | 0.23 | 91 | 1010.2 |
| 20260507052558 | 2 | 144 | 1.6 | 3.2 | 0.03 | 0.23 | 0.23 | 91 | 1010.1 |
| 20260507052500 | 2 | 144 | 1.6 | 3.2 | 0.03 | 0.23 | 0.23 | 91 | 1010.2 |
| 20260507052158 | 2 | 144 | 0.0 | 3.2 | 0.03 | 0.23 | 0.23 | 90 | 1010.1 |
| 20260507052058 | 2 | 144 | 1.6 | 3.2 | 0.03 | 0.23 | 0.23 | 90 | 1010.2 |
| 20260507052001 | 2 | 144 | 3.2 | 3.2 | 0.03 | 0.23 | 0.23 | 90 | 1010.2 |
| 20260507051757 | 2 | 144 | 1.6 | 3.2 | 0.05 | 0.23 | 0.23 | 90 | 1010.1 |
| 20260507051558 | 2 | 144 | 1.6 | 4.8 | 0.05 | 0.23 | 0.23 | 90 | 1010.1 |
| 20260507051500 | 2 | 144 | 3.2 | 6.4 | 0.05 | 0.23 | 0.23 | 90 | 1010.1 |
| 20260507051357 | 2 | 144 | 1.6 | 6.4 | 0.05 | 0.23 | 0.23 | 90 | 1010.1 |
| 20260507051259 | 2 | 144 | 1.6 | 6.4 | 0.05 | 0.23 | 0.23 | 90 | 1010.1 |
| 20260507051159 | 2 | 144 | 1.6 | 6.4 | 0.05 | 0.23 | 0.23 | 90 | 1010.1 |
| 20260507051058 | 2 | 144 | 1.6 | 6.4 | 0.05 | 0.23 | 0.23 | 90 | 1010.1 |
| 20260507051000 | 2 | 144 | 1.6 | 6.4 | 0.08 | 0.23 | 0.23 | 90 | 1010.1 |
| 20260507050858 | 2 | 144 | 1.6 | 6.4 | 0.08 | 0.23 | 0.23 | 90 | 1010.1 |
| 20260507050758 | 2 | 144 | 3.2 | 6.4 | 0.08 | 0.23 | 0.23 | 90 | 1010.0 |
| 20260507050658 | 2 | 144 | 3.2 | 6.4 | 0.08 | 0.23 | 0.23 | 90 | 1010.0 |
| 20260507050459 | 2 | 137 | 3.2 | 6.4 | 0.10 | 0.23 | 0.23 | 90 | 1010.1 |
| 20260507050358 | 2 | 137 | 6.4 | 6.4 | 0.10 | 0.20 | 0.20 | 90 | 1010.0 |
| 20260507050159 | 2 | 127 | 3.2 | 6.4 | 0.10 | 0.20 | 0.20 | 90 | 1010.0 |
| 20260507050058 | 2 | 127 | 3.2 | 6.4 | 0.13 | 0.20 | 0.20 | 90 | 1010.0 |
| 20260507045958 | 2 | 126 | 3.2 | 6.4 | 0.13 | 0.20 | 0.20 | 90 | 1010.1 |
| 20260507045857 | 2 | 126 | 3.2 | 6.4 | 0.13 | 0.20 | 0.20 | 90 | 1010.0 |
| 20260507045757 | 2 | 126 | 1.6 | 6.4 | 0.13 | 0.20 | 0.20 | 90 | 1010.0 |
| 20260507045657 | 2 | 126 | 1.6 | 6.4 | 0.15 | 0.20 | 0.20 | 89 | 1010.0 |
| 20260507045557 | 2 | 126 | 4.8 | 6.4 | 0.15 | 0.20 | 0.20 | 90 | 1010.0 |
| 20260507045459 | 2 | 126 | 3.2 | 3.2 | 0.18 | 0.20 | 0.20 | 90 | 1010.1 |
| 20260507045357 | 2 | 126 | 0.0 | 3.2 | 0.18 | 0.20 | 0.20 | 90 | 1010.1 |
| 20260507045258 | 2 | 126 | 1.6 | 1.6 | 0.18 | 0.20 | 0.20 | 90 | 1010.1 |
| 20260507045157 | 2 | 126 | 1.6 | 1.6 | 0.18 | 0.20 | 0.20 | 90 | 1010.1 |
| 20260507045057 | 2 | 126 | 1.6 | 1.6 | 0.18 | 0.20 | 0.20 | 90 | 1010.1 |
| 20260507044959 | 2 | 126 | 0.0 | 1.6 | 0.20 | 0.20 | 0.20 | 90 | 1010.1 |
| 20260507044857 | 2 | 126 | 0.0 | 3.2 | 0.20 | 0.20 | 0.20 | 90 | 1010.1 |
| 20260507044757 | 2 | 126 | 0.0 | 4.8 | 0.20 | 0.20 | 0.20 | 90 | 1010.1 |
| 20260507044658 | 2 | 126 | 0.0 | 4.8 | 0.20 | 0.20 | 0.20 | 90 | 1010.1 |
| 20260507044557 | 2 | 126 | 0.0 | 4.8 | 0.20 | 0.20 | 0.20 | 90 | 1010.1 |
| 20260507044358 | 2 | 126 | 0.0 | 4.8 | 0.20 | 0.20 | 0.20 | 89 | 1010.1 |
| 20260507044257 | 2 | 126 | 0.0 | 4.8 | 0.20 | 0.20 | 0.20 | 89 | 1010.1 |
| 20260507044157 | 2 | 126 | 1.6 | 4.8 | 0.20 | 0.20 | 0.20 | 89 | 1010.1 |
| 20260507044058 | 2 | 126 | 1.6 | 4.8 | 0.20 | 0.20 | 0.20 | 89 | 1010.1 |
| 20260507043959 | 2 | 126 | 3.2 | 4.8 | 0.20 | 0.20 | 0.20 | 89 | 1010.1 |
| 20260507043756 | 2 | 126 | 1.6 | 4.8 | 0.20 | 0.20 | 0.20 | 89 | 1010.1 |
| 20260507043657 | 2 | 126 | 1.6 | 4.8 | 0.20 | 0.20 | 0.20 | 89 | 1010.0 |
| 20260507043559 | 2 | 126 | 1.6 | 4.8 | 0.20 | 0.20 | 0.20 | 89 | 1010.0 |
| 20260507043458 | 2 | 126 | 1.6 | 4.8 | 0.20 | 0.20 | 0.20 | 88 | 1010.1 |
| 20260507043357 | 2 | 126 | 3.2 | 4.8 | 0.20 | 0.20 | 0.20 | 88 | 1010.1 |
| 20260507043257 | 2 | 126 | 4.8 | 4.8 | 0.20 | 0.20 | 0.20 | 89 | 1010.1 |
| 20260507043157 | 2 | 126 | 3.2 | 6.4 | 0.20 | 0.20 | 0.20 | 89 | 1010.1 |
| 20260507043057 | 2 | 126 | 3.2 | 6.4 | 0.20 | 0.20 | 0.20 | 89 | 1010.1 |
| 20260507043000 | 2 | 126 | 4.8 | 6.4 | 0.20 | 0.20 | 0.20 | 89 | 1010.1 |
| 20260507042858 | 2 | 126 | 3.2 | 6.4 | 0.20 | 0.20 | 0.20 | 89 | 1010.1 |
| 20260507042757 | 2 | 126 | 3.2 | 9.7 | 0.20 | 0.20 | 0.20 | 89 | 1010.1 |
| 20260507042657 | 2 | 126 | 1.6 | 9.7 | 0.20 | 0.20 | 0.20 | 88 | 1010.2 |
| 20260507042557 | 2 | 126 | 1.6 | 9.7 | 0.20 | 0.20 | 0.20 | 88 | 1010.1 |
| 20260507042357 | 2 | 125 | 4.8 | 9.7 | 0.20 | 0.20 | 0.20 | 88 | 1010.1 |
| 20260507042257 | 2 | 115 | 4.8 | 9.7 | 0.20 | 0.20 | 0.20 | 88 | 1010.2 |
| 20260507041958 | 2 | 107 | 6.4 | 9.7 | 0.18 | 0.18 | 0.18 | 88 | 1010.2 |
| 20260507041858 | 2 | 91 | 9.7 | 9.7 | 0.18 | 0.18 | 0.18 | 88 | 1010.2 |
| 20260507041757 | 2 | 96 | 6.4 | 9.7 | 0.18 | 0.18 | 0.18 | 87 | 1010.2 |
| 20260507041658 | 2 | 95 | 4.8 | 9.7 | 0.18 | 0.18 | 0.18 | 87 | 1010.2 |
| 20260507041558 | 2 | 99 | 3.2 | 9.7 | 0.18 | 0.18 | 0.18 | 87 | 1010.2 |
| 20260507041458 | 2 | 115 | 6.4 | 9.7 | 0.18 | 0.18 | 0.18 | 87 | 1010.2 |
| 20260507041358 | 2 | 155 | 3.2 | 8.0 | 0.18 | 0.18 | 0.18 | 87 | 1010.2 |
| 20260507041258 | 2 | 156 | 3.2 | 8.0 | 0.18 | 0.18 | 0.18 | 87 | 1010.2 |
| 20260507041158 | 2 | 161 | 6.4 | 14.5 | 0.18 | 0.18 | 0.18 | 87 | 1010.2 |
| 20260507041058 | 2 | 161 | 6.4 | 14.5 | 0.18 | 0.18 | 0.18 | 87 | 1010.2 |
| 20260507040958 | 2 | 163 | 8.0 | 14.5 | 0.15 | 0.15 | 0.15 | 86 | 1010.2 |
| 20260507040857 | 2 | 150 | 4.8 | 14.5 | 0.15 | 0.15 | 0.15 | 86 | 1010.2 |
| 20260507040757 | 2 | 150 | 4.8 | 14.5 | 0.15 | 0.15 | 0.15 | 86 | 1010.2 |
| 20260507040658 | 2 | 147 | 6.4 | 14.5 | 0.15 | 0.15 | 0.15 | 86 | 1010.3 |
| 20260507040558 | 2 | 178 | 3.2 | 19.3 | 0.13 | 0.13 | 0.13 | 86 | 1010.2 |
| 20260507040500 | 2 | 178 | 4.8 | 19.3 | 0.13 | 0.13 | 0.13 | 85 | 1010.2 |
| 20260507040401 | 2 | 178 | 3.2 | 20.9 | 0.10 | 0.10 | 0.10 | 85 | 1010.2 |
| 20260507040156 | 3 | 151 | 8.0 | 22.5 | 0.10 | 0.10 | 0.10 | 85 | 1010.2 |
| 20260507040059 | 3 | 181 | 6.4 | 22.5 | 0.08 | 0.08 | 0.08 | 84 | 1010.1 |
| 20260507035959 | 3 | 168 | 8.0 | 22.5 | 0.08 | 0.08 | 0.08 | 84 | 1010.2 |
| 20260507035857 | 3 | 191 | 6.4 | 22.5 | 0.08 | 0.08 | 0.08 | 83 | 1010.1 |
| 20260507035757 | 3 | 167 | 14.5 | 22.5 | 0.08 | 0.08 | 0.08 | 83 | 1010.1 |
| 20260507035658 | 3 | 194 | 12.9 | 24.1 | 0.05 | 0.05 | 0.05 | 82 | 1010.1 |
| 20260507035556 | 3 | 155 | 20.9 | 24.1 | 0.05 | 0.05 | 0.05 | 81 | 1010.1 |
| 20260507035459 | 3 | 194 | 16.1 | 24.1 | 0.03 | 0.03 | 0.03 | 81 | 1010.1 |
| 20260507035358 | 4 | 184 | 11.3 | 24.1 | 0.03 | 0.03 | 0.03 | 80 | 1010.0 |
| 20260507035258 | 4 | 214 | 12.9 | 24.1 | 0.03 | 0.03 | 0.03 | 79 | 1010.0 |
| 20260507035158 | 4 | 161 | 11.3 | 24.1 | 0.03 | 0.03 | 0.03 | 78 | 1010.0 |
| 20260507035057 | 5 | 189 | 8.0 | 24.1 | 0.03 | 0.03 | 0.03 | 77 | 1010.0 |
| 20260507035000 | 5 | 205 | 14.5 | 24.1 | 0.00 | 0.00 | 0.00 | 75 | 1009.9 |
| 20260507034857 | 5 | 240 | 17.7 | 17.7 | 0.00 | 0.00 | 0.00 | 73 | 1009.9 |
| 20260507034757 | 5 | 178 | 9.7 | 16.1 | 0.00 | 0.00 | 0.00 | 71 | 1009.9 |
| 20260507034658 | 5 | 180 | 11.3 | 16.1 | 0.00 | 0.00 | 0.00 | 71 | 1009.8 |
| 20260507034557 | 5 | 202 | 14.5 | 17.7 | 0.00 | 0.00 | 0.00 | 71 | 1009.8 |
| 20260507034459 | 5 | 217 | 11.3 | 16.1 | 0.00 | 0.00 | 0.00 | 70 | 1009.7 |
| 20260507034357 | 5 | 238 | 16.1 | 16.1 | 0.00 | 0.00 | 0.00 | 69 | 1009.6 |
| 20260507034257 | 5 | 165 | 6.4 | 14.5 | 0.00 | 0.00 | 0.00 | 69 | 1009.6 |
| 20260507034157 | 5 | 151 | 6.4 | 14.5 | 0.00 | 0.00 | 0.00 | 68 | 1009.6 |
| 20260507033959 | 5 | 200 | 11.3 | 12.9 | 0.00 | 0.00 | 0.00 | 70 | 1009.5 |
| 20260507033856 | 5 | 171 | 11.3 | 11.3 | 0.00 | 0.00 | 0.00 | 71 | 1009.5 |
| 20260507033756 | 5 | 274 | 4.8 | 11.3 | 0.00 | 0.00 | 0.00 | 71 | 1009.5 |
| 20260507033558 | 5 | 232 | 9.7 | 12.9 | 0.00 | 0.00 | 0.00 | 71 | 1009.5 |
| 20260507033500 | 5 | 279 | 1.6 | 11.3 | 0.00 | 0.00 | 0.00 | 71 | 1009.4 |
| 20260507033257 | 6 | 273 | 6.4 | 9.7 | 0.00 | 0.00 | 0.00 | 71 | 1009.3 |
| 20260507033158 | 6 | 273 | 4.8 | 6.4 | 0.00 | 0.00 | 0.00 | 71 | 1009.3 |
| 20260507033057 | 6 | 250 | 6.4 | 6.4 | 0.00 | 0.00 | 0.00 | 71 | 1009.3 |
| 20260507032959 | 6 | 99 | 3.2 | 4.8 | 0.00 | 0.00 | 0.00 | 71 | 1009.2 |
| 20260507032857 | 6 | 99 | 0.0 | 4.8 | 0.00 | 0.00 | 0.00 | 71 | 1009.3 |
| 20260507032657 | 5 | 99 | 1.6 | 12.9 | 0.00 | 0.00 | 0.00 | 71 | 1009.2 |
| 20260507032459 | 5 | 123 | 3.2 | 14.5 | 0.00 | 0.00 | 0.00 | 71 | 1009.2 |
| 20260507032358 | 5 | 123 | 0.0 | 14.5 | 0.00 | 0.00 | 0.00 | 71 | 1009.1 |
| 20260507032256 | 5 | 123 | 1.6 | 14.5 | 0.00 | 0.00 | 0.00 | 71 | 1009.1 |
| 20260507032158 | 5 | 123 | 3.2 | 14.5 | 0.00 | 0.00 | 0.00 | 71 | 1009.1 |
| 20260507032058 | 6 | 124 | 1.6 | 14.5 | 0.00 | 0.00 | 0.00 | 71 | 1009.2 |
| 20260507032006 | 6 | 124 | 0.0 | 14.5 | 0.00 | 0.00 | 0.00 | 71 | 1009.2 |
| 20260507031858 | 6 | 124 | 4.8 | 14.5 | 0.00 | 0.00 | 0.00 | 71 | 1009.2 |
| 20260507031758 | 5 | 140 | 6.4 | 14.5 | 0.00 | 0.00 | 0.00 | 71 | 1009.2 |
| 20260507031659 | 6 | 158 | 8.0 | 8.0 | 0.00 | 0.00 | 0.00 | 72 | 1009.2 |
| 20260507031557 | 6 | 20 | 3.2 | 8.0 | 0.00 | 0.00 | 0.00 | 74 | 1009.2 |
| 20260507031459 | 6 | 19 | 3.2 | 8.0 | 0.00 | 0.00 | 0.00 | 74 | 1009.2 |
| 20260507031357 | 6 | 15 | 4.8 | 8.0 | 0.00 | 0.00 | 0.00 | 73 | 1009.1 |
| 20260507031256 | 6 | 13 | 3.2 | 8.0 | 0.00 | 0.00 | 0.00 | 73 | 1009.2 |
| 20260507031158 | 6 | 13 | 6.4 | 11.3 | 0.00 | 0.00 | 0.00 | 73 | 1009.2 |
| 20260507031056 | 6 | 17 | 4.8 | 11.3 | 0.00 | 0.00 | 0.00 | 72 | 1009.2 |
| 20260507030958 | 6 | 12 | 4.8 | 11.3 | 0.00 | 0.00 | 0.00 | 71 | 1009.1 |
| 20260507030857 | 6 | 306 | 4.8 | 11.3 | 0.00 | 0.00 | 0.00 | 71 | 1009.1 |
| 20260507030758 | 6 | 279 | 4.8 | 11.3 | 0.00 | 0.00 | 0.00 | 71 | 1009.1 |
| 20260507030459 | 6 | 269 | 3.2 | 11.3 | 0.00 | 0.00 | 0.00 | 70 | 1009.2 |
| 20260507030356 | 6 | 269 | 9.7 | 11.3 | 0.00 | 0.00 | 0.00 | 68 | 1009.1 |
| 20260507030258 | 6 | 191 | 4.8 | 11.3 | 0.00 | 0.00 | 0.00 | 66 | 1009.1 |
| 20260507030158 | 6 | 240 | 3.2 | 11.3 | 0.00 | 0.00 | 0.00 | 66 | 1009.1 |
| 20260507025959 | 6 | 257 | 4.8 | 11.3 | 0.00 | 0.00 | 0.00 | 67 | 1009.1 |
| 20260507025858 | 6 | 257 | 6.4 | 11.3 | 0.00 | 0.00 | 0.00 | 67 | 1009.0 |
| 20260507025757 | 6 | 269 | 1.6 | 11.3 | 0.00 | 0.00 | 0.00 | 66 | 1009.1 |
| 20260507025656 | 6 | 134 | 0.0 | 16.1 | 0.00 | 0.00 | 0.00 | 66 | 1009.0 |
| 20260507025557 | 6 | 134 | 3.2 | 16.1 | 0.00 | 0.00 | 0.00 | 65 | 1009.0 |
| 20260507025458 | 6 | 134 | 11.3 | 16.1 | 0.00 | 0.00 | 0.00 | 65 | 1009.0 |
| 20260507025357 | 6 | 134 | 6.4 | 16.1 | 0.00 | 0.00 | 0.00 | 66 | 1009.0 |
| 20260507025258 | 6 | 288 | 1.6 | 16.1 | 0.00 | 0.00 | 0.00 | 67 | 1009.0 |
| 20260507025158 | 6 | 294 | 8.0 | 16.1 | 0.00 | 0.00 | 0.00 | 65 | 1009.0 |
| 20260507024959 | 6 | 42 | 8.0 | 16.1 | 0.00 | 0.00 | 0.00 | 67 | 1009.1 |
| 20260507024858 | 6 | 38 | 11.3 | 16.1 | 0.00 | 0.00 | 0.00 | 70 | 1009.0 |
| 20260507024658 | 6 | 340 | 4.8 | 9.7 | 0.00 | 0.00 | 0.00 | 70 | 1009.0 |
| 20260507024459 | 6 | 316 | 6.4 | 11.3 | 0.00 | 0.00 | 0.00 | 71 | 1009.0 |
| 20260507024358 | 6 | 308 | 4.8 | 11.3 | 0.00 | 0.00 | 0.00 | 72 | 1009.0 |
| 20260507024256 | 6 | 308 | 1.6 | 11.3 | 0.00 | 0.00 | 0.00 | 71 | 1009.0 |
| 20260507024157 | 6 | 307 | 1.6 | 11.3 | 0.00 | 0.00 | 0.00 | 71 | 1009.0 |
| 20260507024058 | 6 | 295 | 3.2 | 11.3 | 0.00 | 0.00 | 0.00 | 71 | 1009.0 |
| 20260507023958 | 6 | 296 | 4.8 | 11.3 | 0.00 | 0.00 | 0.00 | 71 | 1009.0 |
| 20260507023857 | 6 | 295 | 4.8 | 11.3 | 0.00 | 0.00 | 0.00 | 71 | 1009.0 |
| 20260507023757 | 6 | 289 | 3.2 | 11.3 | 0.00 | 0.00 | 0.00 | 69 | 1009.0 |
| 20260507023658 | 6 | 304 | 6.4 | 11.3 | 0.00 | 0.00 | 0.00 | 68 | 1009.0 |
| 20260507023557 | 6 | 306 | 6.4 | 11.3 | 0.00 | 0.00 | 0.00 | 68 | 1008.9 |
| 20260507023500 | 6 | 313 | 6.4 | 9.7 | 0.00 | 0.00 | 0.00 | 68 | 1008.9 |
| 20260507023358 | 6 | 288 | 11.3 | 11.3 | 0.00 | 0.00 | 0.00 | 68 | 1008.8 |
| 20260507023257 | 6 | 303 | 3.2 | 8.0 | 0.00 | 0.00 | 0.00 | 68 | 1008.9 |
| 20260507023157 | 6 | 285 | 4.8 | 14.5 | 0.00 | 0.00 | 0.00 | 68 | 1009.0 |
| 20260507023056 | 6 | 262 | 3.2 | 14.5 | 0.00 | 0.00 | 0.00 | 69 | 1008.9 |
| 20260507022958 | 6 | 209 | 4.8 | 17.7 | 0.00 | 0.00 | 0.00 | 71 | 1008.9 |
| 20260507022756 | 6 | 183 | 0.0 | 17.7 | 0.00 | 0.00 | 0.00 | 72 | 1008.9 |
| 20260507022657 | 6 | 183 | 1.6 | 17.7 | 0.00 | 0.00 | 0.00 | 72 | 1009.0 |
| 20260507022557 | 6 | 183 | 1.6 | 17.7 | 0.00 | 0.00 | 0.00 | 73 | 1008.9 |
| 20260507022459 | 6 | 183 | 0.0 | 17.7 | 0.00 | 0.00 | 0.00 | 73 | 1008.9 |
| 20260507022358 | 6 | 183 | 6.4 | 17.7 | 0.00 | 0.00 | 0.00 | 72 | 1008.8 |
| 20260507022157 | 6 | 136 | 11.3 | 17.7 | 0.00 | 0.00 | 0.00 | 67 | 1008.9 |
| 20260507022056 | 6 | 181 | 4.8 | 11.3 | 0.00 | 0.00 | 0.00 | 70 | 1008.9 |
| 20260507022000 | 6 | 263 | 1.6 | 11.3 | 0.00 | 0.00 | 0.00 | 69 | 1009.0 |
| 20260507021858 | 6 | 272 | 4.8 | 11.3 | 0.00 | 0.00 | 0.00 | 71 | 1008.9 |
| 20260507021758 | 6 | 272 | 0.0 | 11.3 | 0.00 | 0.00 | 0.00 | 71 | 1008.9 |
| 20260507021658 | 6 | 272 | 3.2 | 11.3 | 0.00 | 0.00 | 0.00 | 68 | 1008.8 |
| 20260507021459 | 6 | 272 | 6.4 | 11.3 | 0.00 | 0.00 | 0.00 | 66 | 1008.9 |
| 20260507021358 | 6 | 275 | 4.8 | 11.3 | 0.00 | 0.00 | 0.00 | 66 | 1008.8 |
| 20260507021258 | 6 | 277 | 4.8 | 11.3 | 0.00 | 0.00 | 0.00 | 66 | 1008.8 |
| 20260507021157 | 6 | 278 | 11.3 | 11.3 | 0.00 | 0.00 | 0.00 | 67 | 1008.8 |
| 20260507020958 | 6 | 300 | 4.8 | 8.0 | 0.00 | 0.00 | 0.00 | 68 | 1008.8 |
| 20260507020858 | 6 | 183 | 1.6 | 12.9 | 0.00 | 0.00 | 0.00 | 68 | 1008.8 |
| 20260507020758 | 6 | 183 | 3.2 | 12.9 | 0.00 | 0.00 | 0.00 | 68 | 1008.8 |
| 20260507020657 | 6 | 183 | 0.0 | 12.9 | 0.00 | 0.00 | 0.00 | 69 | 1008.8 |
| 20260507020459 | 6 | 183 | 1.6 | 12.9 | 0.00 | 0.00 | 0.00 | 69 | 1008.8 |
| 20260507020256 | 6 | 180 | 3.2 | 12.9 | 0.00 | 0.00 | 0.00 | 67 | 1008.8 |
| 20260507020159 | 6 | 175 | 3.2 | 12.9 | 0.00 | 0.00 | 0.00 | 68 | 1008.8 |
| 20260507020058 | 6 | 167 | 4.8 | 12.9 | 0.00 | 0.00 | 0.00 | 68 | 1008.8 |
| 20260507015959 | 6 | 171 | 11.3 | 14.5 | 0.00 | 0.00 | 0.00 | 70 | 1008.8 |
| 20260507015656 | 6 | 103 | 9.7 | 9.7 | 0.00 | 0.00 | 0.00 | 79 | 1008.8 |
| 20260507015557 | 6 | 311 | 1.6 | 4.8 | 0.00 | 0.00 | 0.00 | 79 | 1008.7 |
| 20260507015458 | 6 | 312 | 3.2 | 4.8 | 0.00 | 0.00 | 0.00 | 78 | 1008.7 |
| 20260507015358 | 6 | 313 | 3.2 | 4.8 | 0.00 | 0.00 | 0.00 | 78 | 1008.7 |
| 20260507015257 | 6 | 312 | 0.0 | 4.8 | 0.00 | 0.00 | 0.00 | 77 | 1008.8 |
| 20260507015159 | 6 | 313 | 3.2 | 4.8 | 0.00 | 0.00 | 0.00 | 77 | 1008.7 |
| 20260507015058 | 6 | 312 | 1.6 | 4.8 | 0.00 | 0.00 | 0.00 | 78 | 1008.7 |
| 20260507014959 | 6 | 312 | 1.6 | 4.8 | 0.00 | 0.00 | 0.00 | 77 | 1008.8 |
| 20260507014757 | 6 | 312 | 1.6 | 4.8 | 0.00 | 0.00 | 0.00 | 77 | 1008.7 |
| 20260507014658 | 6 | 317 | 1.6 | 4.8 | 0.00 | 0.00 | 0.00 | 77 | 1008.7 |
| 20260507014557 | 6 | 318 | 1.6 | 4.8 | 0.00 | 0.00 | 0.00 | 77 | 1008.7 |
| 20260507014459 | 6 | 317 | 3.2 | 4.8 | 0.00 | 0.00 | 0.00 | 77 | 1008.7 |
| 20260507014357 | 6 | 317 | 3.2 | 4.8 | 0.00 | 0.00 | 0.00 | 78 | 1008.7 |
| 20260507014258 | 6 | 317 | 3.2 | 4.8 | 0.00 | 0.00 | 0.00 | 77 | 1008.6 |
| 20260507014158 | 6 | 317 | 1.6 | 4.8 | 0.00 | 0.00 | 0.00 | 76 | 1008.7 |
| 20260507014057 | 6 | 317 | 1.6 | 4.8 | 0.00 | 0.00 | 0.00 | 76 | 1008.7 |
| 20260507013958 | 6 | 317 | 0.0 | 4.8 | 0.00 | 0.00 | 0.00 | 76 | 1008.6 |
| 20260507013858 | 6 | 317 | 1.6 | 4.8 | 0.00 | 0.00 | 0.00 | 76 | 1008.7 |
| 20260507013759 | 6 | 317 | 3.2 | 4.8 | 0.00 | 0.00 | 0.00 | 76 | 1008.7 |
| 20260507013558 | 6 | 317 | 1.6 | 4.8 | 0.00 | 0.00 | 0.00 | 76 | 1008.7 |
| 20260507013459 | 6 | 317 | 0.0 | 4.8 | 0.00 | 0.00 | 0.00 | 77 | 1008.7 |
| 20260507013357 | 6 | 317 | 3.2 | 4.8 | 0.00 | 0.00 | 0.00 | 78 | 1008.6 |
| 20260507013158 | 6 | 317 | 3.2 | 4.8 | 0.00 | 0.00 | 0.00 | 79 | 1008.7 |
| 20260507013058 | 6 | 317 | 3.2 | 4.8 | 0.00 | 0.00 | 0.00 | 79 | 1008.6 |
| 20260507012959 | 6 | 317 | 0.0 | 4.8 | 0.00 | 0.00 | 0.00 | 79 | 1008.7 |
| 20260507012859 | 5 | 317 | 3.2 | 4.8 | 0.00 | 0.00 | 0.00 | 80 | 1008.7 |
| 20260507012657 | 5 | 317 | 0.0 | 3.2 | 0.00 | 0.00 | 0.00 | 80 | 1008.7 |
| 20260507012605 | 5 | 317 | 0.0 | 3.2 | 0.00 | 0.00 | 0.00 | 81 | 1008.7 |
| 20260507012459 | 5 | 317 | 1.6 | 3.2 | 0.00 | 0.00 | 0.00 | 81 | 1008.7 |
| 20260507012357 | 5 | 317 | 3.2 | 3.2 | 0.00 | 0.00 | 0.00 | 81 | 1008.7 |
| 20260507012306 | 5 | 317 | 1.6 | 3.2 | 0.00 | 0.00 | 0.00 | 80 | 1008.7 |
| 20260507012159 | 5 | 317 | 0.0 | 4.8 | 0.00 | 0.00 | 0.00 | 79 | 1008.8 |
| 20260507012058 | 5 | 318 | 0.0 | 4.8 | 0.00 | 0.00 | 0.00 | 78 | 1008.7 |
| 20260507012000 | 5 | 317 | 1.6 | 4.8 | 0.00 | 0.00 | 0.00 | 78 | 1008.8 |
| 20260507011857 | 5 | 317 | 1.6 | 4.8 | 0.00 | 0.00 | 0.00 | 79 | 1008.7 |
| 20260507011758 | 5 | 317 | 0.0 | 4.8 | 0.00 | 0.00 | 0.00 | 80 | 1008.8 |
| 20260507011556 | 5 | 317 | 1.6 | 6.4 | 0.00 | 0.00 | 0.00 | 81 | 1008.8 |
| 20260507011458 | 5 | 317 | 1.6 | 6.4 | 0.00 | 0.00 | 0.00 | 80 | 1008.8 |
| 20260507011256 | 5 | 318 | 1.6 | 6.4 | 0.00 | 0.00 | 0.00 | 78 | 1008.8 |
| 20260507011159 | 5 | 318 | 3.2 | 6.4 | 0.00 | 0.00 | 0.00 | 79 | 1008.8 |
| 20260507011056 | 5 | 318 | 3.2 | 6.4 | 0.00 | 0.00 | 0.00 | 80 | 1008.8 |
| 20260507010959 | 5 | 318 | 3.2 | 6.4 | 0.00 | 0.00 | 0.00 | 79 | 1008.8 |
| 20260507010857 | 5 | 318 | 1.6 | 6.4 | 0.00 | 0.00 | 0.00 | 79 | 1008.7 |
| 20260507010757 | 5 | 318 | 3.2 | 6.4 | 0.00 | 0.00 | 0.00 | 79 | 1008.8 |
| 20260507010657 | 5 | 48 | 4.8 | 6.4 | 0.00 | 0.00 | 0.00 | 79 | 1008.8 |
| 20260507010558 | 5 | 51 | 0.0 | 8.0 | 0.00 | 0.00 | 0.00 | 79 | 1008.8 |
| 20260507010459 | 5 | 51 | 0.0 | 8.0 | 0.00 | 0.00 | 0.00 | 79 | 1008.8 |
| 20260507010257 | 5 | 51 | 1.6 | 8.0 | 0.00 | 0.00 | 0.00 | 80 | 1008.8 |
| 20260507010157 | 5 | 52 | 1.6 | 8.0 | 0.00 | 0.00 | 0.00 | 80 | 1008.8 |
| 20260507005959 | 5 | 51 | 1.6 | 8.0 | 0.00 | 0.00 | 0.00 | 80 | 1008.7 |
| 20260507005857 | 5 | 52 | 4.8 | 8.0 | 0.00 | 0.00 | 0.00 | 80 | 1008.7 |
| 20260507005757 | 5 | 52 | 6.4 | 8.0 | 0.00 | 0.00 | 0.00 | 80 | 1008.7 |
| 20260507005559 | 5 | 16 | 3.2 | 8.0 | 0.00 | 0.00 | 0.00 | 80 | 1008.7 |
| 20260507005459 | 5 | 347 | 3.2 | 6.4 | 0.00 | 0.00 | 0.00 | 80 | 1008.8 |
| 20260507005357 | 5 | 334 | 4.8 | 6.4 | 0.00 | 0.00 | 0.00 | 80 | 1008.8 |
| 20260507005257 | 5 | 314 | 4.8 | 6.4 | 0.00 | 0.00 | 0.00 | 80 | 1008.7 |
| 20260507004858 | 5 | 277 | 4.8 | 6.4 | 0.00 | 0.00 | 0.00 | 81 | 1008.7 |
| 20260507004756 | 5 | 284 | 1.6 | 11.3 | 0.00 | 0.00 | 0.00 | 80 | 1008.8 |
| 20260507004557 | 5 | 284 | 3.2 | 11.3 | 0.00 | 0.00 | 0.00 | 80 | 1008.7 |
| 20260507004459 | 5 | 284 | 4.8 | 11.3 | 0.00 | 0.00 | 0.00 | 80 | 1008.7 |
| 20260507004257 | 5 | 285 | 4.8 | 11.3 | 0.00 | 0.00 | 0.00 | 80 | 1008.6 |
| 20260507004159 | 5 | 285 | 0.0 | 11.3 | 0.00 | 0.00 | 0.00 | 80 | 1008.7 |
| 20260507004057 | 5 | 285 | 6.4 | 11.3 | 0.00 | 0.00 | 0.00 | 80 | 1008.7 |
| 20260507004000 | 5 | 284 | 9.7 | 11.3 | 0.00 | 0.00 | 0.00 | 80 | 1008.7 |
| 20260507003857 | 5 | 302 | 8.0 | 11.3 | 0.00 | 0.00 | 0.00 | 80 | 1008.7 |
| 20260507003757 | 5 | 292 | 4.8 | 11.3 | 0.00 | 0.00 | 0.00 | 79 | 1008.6 |
| 20260507003657 | 5 | 282 | 3.2 | 11.3 | 0.00 | 0.00 | 0.00 | 79 | 1008.7 |
| 20260507003557 | 5 | 281 | 3.2 | 11.3 | 0.00 | 0.00 | 0.00 | 79 | 1008.7 |
| 20260507003459 | 5 | 280 | 11.3 | 11.3 | 0.00 | 0.00 | 0.00 | 79 | 1008.6 |
| 20260507003357 | 5 | 286 | 4.8 | 11.3 | 0.00 | 0.00 | 0.00 | 79 | 1008.6 |
| 20260507003257 | 5 | 271 | 6.4 | 11.3 | 0.00 | 0.00 | 0.00 | 79 | 1008.6 |
| 20260507003157 | 5 | 260 | 3.2 | 11.3 | 0.00 | 0.00 | 0.00 | 78 | 1008.6 |
| 20260507003058 | 5 | 260 | 9.7 | 11.3 | 0.00 | 0.00 | 0.00 | 78 | 1008.6 |
| 20260507002758 | 5 | 302 | 8.0 | 11.3 | 0.00 | 0.00 | 0.00 | 78 | 1008.6 |
| 20260507002657 | 5 | 326 | 6.4 | 12.9 | 0.00 | 0.00 | 0.00 | 78 | 1008.6 |
| 20260507002557 | 5 | 275 | 1.6 | 12.9 | 0.00 | 0.00 | 0.00 | 78 | 1008.6 |
| 20260507002458 | 5 | 263 | 6.4 | 12.9 | 0.00 | 0.00 | 0.00 | 78 | 1008.6 |
| 20260507002357 | 5 | 284 | 9.7 | 12.9 | 0.00 | 0.00 | 0.00 | 79 | 1008.6 |
| 20260507002257 | 5 | 297 | 3.2 | 12.9 | 0.00 | 0.00 | 0.00 | 79 | 1008.6 |
| 20260507002158 | 5 | 294 | 1.6 | 12.9 | 0.00 | 0.00 | 0.00 | 79 | 1008.5 |
| 20260507002056 | 5 | 276 | 4.8 | 12.9 | 0.00 | 0.00 | 0.00 | 79 | 1008.5 |
| 20260507001959 | 5 | 304 | 4.8 | 12.9 | 0.00 | 0.00 | 0.00 | 79 | 1008.5 |
| 20260507001858 | 5 | 290 | 6.4 | 12.9 | 0.00 | 0.00 | 0.00 | 79 | 1008.5 |
| 20260507001657 | 5 | 310 | 6.4 | 9.7 | 0.00 | 0.00 | 0.00 | 80 | 1008.5 |
| 20260507001556 | 5 | 350 | 4.8 | 9.7 | 0.00 | 0.00 | 0.00 | 81 | 1008.5 |
| 20260507001459 | 5 | 336 | 4.8 | 11.3 | 0.00 | 0.00 | 0.00 | 81 | 1008.5 |
| 20260507001357 | 5 | 338 | 3.2 | 11.3 | 0.00 | 0.00 | 0.00 | 81 | 1008.5 |
| 20260507001257 | 5 | 340 | 6.4 | 12.9 | 0.00 | 0.00 | 0.00 | 81 | 1008.5 |
| 20260507001158 | 5 | 342 | 4.8 | 12.9 | 0.00 | 0.00 | 0.00 | 80 | 1008.5 |
| 20260507001056 | 5 | 342 | 4.8 | 12.9 | 0.00 | 0.00 | 0.00 | 80 | 1008.5 |
| 20260507000958 | 5 | 343 | 8.0 | 12.9 | 0.00 | 0.00 | 0.00 | 81 | 1008.5 |
| 20260507000857 | 5 | 342 | 4.8 | 12.9 | 0.00 | 0.00 | 0.00 | 81 | 1008.5 |
| 20260507000757 | 5 | 346 | 6.4 | 12.9 | 0.00 | 0.00 | 0.00 | 81 | 1008.5 |
| 20260507000657 | 5 | 317 | 6.4 | 12.9 | 0.00 | 0.00 | 0.00 | 81 | 1008.5 |
| 20260507000557 | 5 | 336 | 4.8 | 12.9 | 0.00 | 0.00 | 0.00 | 81 | 1008.5 |
| 20260507000458 | 5 | 330 | 9.7 | 14.5 | 0.00 | 0.00 | 0.00 | 81 | 1008.5 |
| 20260507000259 | 5 | 294 | 8.0 | 14.5 | 0.00 | 0.00 | 0.00 | 82 | 1008.5 |
| 20260507000157 | 5 | 298 | 4.8 | 14.5 | 0.00 | 0.00 | 0.00 | 82 | 1008.5 |
| 20260507000058 | 5 | 316 | 4.8 | 14.5 | 0.00 | 0.00 | 0.00 | 81 | 1008.4 |
| 20260507000003 | 5 | 315 | 3.2 | 14.5 | 0.00 | 0.00 | 0.00 | 81 | 1008.5 |
| 20260506235858 | 5 | 306 | 3.2 | 14.5 | 0.00 | 0.00 | 0.00 | 81 | 1008.5 |
| 20260506235758 | 5 | 315 | 8.0 | 14.5 | 0.00 | 0.00 | 0.00 | 81 | 1008.4 |
| 20260506235658 | 5 | 296 | 11.3 | 14.5 | 0.00 | 0.00 | 0.00 | 80 | 1008.5 |
| 20260506235500 | 5 | 316 | 6.4 | 9.7 | 0.00 | 0.00 | 0.00 | 80 | 1008.4 |
| 20260506235359 | 5 | 310 | 4.8 | 12.9 | 0.00 | 0.00 | 0.00 | 80 | 1008.4 |
| 20260506235258 | 5 | 311 | 6.4 | 12.9 | 0.00 | 0.00 | 0.00 | 80 | 1008.4 |
| 20260506235059 | 5 | 286 | 4.8 | 16.1 | 0.00 | 0.00 | 0.00 | 81 | 1008.4 |
| 20260506235004 | 5 | 273 | 3.2 | 16.1 | 0.00 | 0.00 | 0.00 | 80 | 1008.4 |
| 20260506234859 | 5 | 270 | 4.8 | 16.1 | 0.00 | 0.00 | 0.00 | 79 | 1008.4 |
| 20260506234758 | 5 | 271 | 4.8 | 16.1 | 0.00 | 0.00 | 0.00 | 79 | 1008.3 |
| 20260506234657 | 5 | 265 | 9.7 | 16.1 | 0.00 | 0.00 | 0.00 | 79 | 1008.4 |
| 20260506234601 | 5 | 286 | 1.6 | 16.1 | 0.00 | 0.00 | 0.00 | 79 | 1008.4 |
| 20260506234401 | 5 | 9 | 11.3 | 16.1 | 0.00 | 0.00 | 0.00 | 79 | 1008.3 |
| 20260506234259 | 5 | 340 | 14.5 | 16.1 | 0.00 | 0.00 | 0.00 | 79 | 1008.4 |
| 20260506234157 | 5 | 333 | 3.2 | 16.1 | 0.00 | 0.00 | 0.00 | 78 | 1008.3 |
| 20260506234059 | 5 | 333 | 12.9 | 16.1 | 0.00 | 0.00 | 0.00 | 78 | 1008.3 |
| 20260506234001 | 5 | 340 | 9.7 | 16.1 | 0.00 | 0.00 | 0.00 | 78 | 1008.3 |
| 20260506233858 | 5 | 312 | 12.9 | 16.1 | 0.00 | 0.00 | 0.00 | 78 | 1008.3 |
| 20260506233758 | 5 | 322 | 9.7 | 11.3 | 0.00 | 0.00 | 0.00 | 78 | 1008.3 |
| 20260506233658 | 5 | 294 | 3.2 | 11.3 | 0.00 | 0.00 | 0.00 | 78 | 1008.3 |
| 20260506233559 | 5 | 293 | 3.2 | 11.3 | 0.00 | 0.00 | 0.00 | 78 | 1008.2 |
| 20260506233500 | 5 | 293 | 1.6 | 11.3 | 0.00 | 0.00 | 0.00 | 78 | 1008.2 |
| 20260506233359 | 5 | 293 | 4.8 | 11.3 | 0.00 | 0.00 | 0.00 | 78 | 1008.2 |
| 20260506233057 | 5 | 306 | 8.0 | 17.7 | 0.00 | 0.00 | 0.00 | 79 | 1008.3 |
| 20260506233000 | 5 | 328 | 1.6 | 17.7 | 0.00 | 0.00 | 0.00 | 78 | 1008.2 |
| 20260506232858 | 5 | 328 | 4.8 | 17.7 | 0.00 | 0.00 | 0.00 | 78 | 1008.2 |
| 20260506232658 | 6 | 360 | 6.4 | 17.7 | 0.00 | 0.00 | 0.00 | 77 | 1008.2 |
| 20260506232559 | 6 | 292 | 6.4 | 17.7 | 0.00 | 0.00 | 0.00 | 76 | 1008.2 |
| 20260506232459 | 6 | 274 | 12.9 | 17.7 | 0.00 | 0.00 | 0.00 | 75 | 1008.2 |
| 20260506232359 | 6 | 340 | 6.4 | 17.7 | 0.00 | 0.00 | 0.00 | 74 | 1008.2 |
| 20260506232259 | 6 | 313 | 6.4 | 17.7 | 0.00 | 0.00 | 0.00 | 74 | 1008.2 |
| 20260506232159 | 6 | 338 | 8.0 | 17.7 | 0.00 | 0.00 | 0.00 | 72 | 1008.1 |
| 20260506232100 | 6 | 321 | 4.8 | 17.7 | 0.00 | 0.00 | 0.00 | 69 | 1008.1 |
| 20260506232001 | 6 | 342 | 12.9 | 17.7 | 0.00 | 0.00 | 0.00 | 69 | 1008.1 |
| 20260506231858 | 6 | 355 | 9.7 | 17.7 | 0.00 | 0.00 | 0.00 | 69 | 1008.1 |
| 20260506231758 | 6 | 327 | 14.5 | 17.7 | 0.00 | 0.00 | 0.00 | 68 | 1008.0 |
| 20260506231657 | 6 | 303 | 4.8 | 17.7 | 0.00 | 0.00 | 0.00 | 68 | 1008.1 |
| 20260506231558 | 6 | 301 | 11.3 | 17.7 | 0.00 | 0.00 | 0.00 | 66 | 1008.1 |
| 20260506231504 | 7 | 317 | 16.1 | 17.7 | 0.00 | 0.00 | 0.00 | 65 | 1008.0 |
| 20260506231359 | 7 | 259 | 3.2 | 17.7 | 0.00 | 0.00 | 0.00 | 65 | 1008.0 |
| 20260506231258 | 7 | 266 | 17.7 | 17.7 | 0.00 | 0.00 | 0.00 | 65 | 1008.0 |
| 20260506231158 | 7 | 302 | 8.0 | 12.9 | 0.00 | 0.00 | 0.00 | 65 | 1008.1 |
| 20260506231003 | 7 | 327 | 1.6 | 12.9 | 0.00 | 0.00 | 0.00 | 60 | 1008.0 |
| 20260506230858 | 7 | 336 | 9.7 | 12.9 | 0.00 | 0.00 | 0.00 | 56 | 1008.0 |
| 20260506230759 | 7 | 153 | 3.2 | 9.7 | 0.00 | 0.00 | 0.00 | 55 | 1008.0 |
| 20260506230558 | 7 | 181 | 3.2 | 9.7 | 0.00 | 0.00 | 0.00 | 55 | 1008.0 |
| 20260506230500 | 7 | 159 | 8.0 | 16.1 | 0.00 | 0.00 | 0.00 | 55 | 1008.0 |
| 20260506230358 | 7 | 141 | 11.3 | 16.1 | 0.00 | 0.00 | 0.00 | 56 | 1007.9 |
| 20260506230258 | 7 | 130 | 1.6 | 16.1 | 0.00 | 0.00 | 0.00 | 55 | 1007.9 |
| 20260506230157 | 7 | 130 | 3.2 | 16.1 | 0.00 | 0.00 | 0.00 | 55 | 1008.0 |
| 20260506230058 | 7 | 130 | 8.0 | 16.1 | 0.00 | 0.00 | 0.00 | 56 | 1007.9 |
| 20260506225858 | 7 | 126 | 3.2 | 16.1 | 0.00 | 0.00 | 0.00 | 55 | 1007.9 |
| 20260506225757 | 7 | 130 | 8.0 | 17.7 | 0.00 | 0.00 | 0.00 | 56 | 1007.9 |
| 20260506225557 | 7 | 113 | 6.4 | 17.7 | 0.00 | 0.00 | 0.00 | 56 | 1007.9 |
| 20260506225458 | 7 | 103 | 11.3 | 17.7 | 0.00 | 0.00 | 0.00 | 55 | 1007.9 |
| 20260506225357 | 7 | 125 | 8.0 | 19.3 | 0.00 | 0.00 | 0.00 | 56 | 1007.8 |
| 20260506225257 | 7 | 123 | 8.0 | 19.3 | 0.00 | 0.00 | 0.00 | 57 | 1007.8 |
| 20260506225156 | 7 | 135 | 4.8 | 19.3 | 0.00 | 0.00 | 0.00 | 56 | 1007.9 |
| 20260506225057 | 7 | 121 | 6.4 | 19.3 | 0.00 | 0.00 | 0.00 | 56 | 1007.9 |
| 20260506224958 | 7 | 113 | 12.9 | 19.3 | 0.00 | 0.00 | 0.00 | 56 | 1007.8 |
| 20260506224857 | 7 | 110 | 12.9 | 19.3 | 0.00 | 0.00 | 0.00 | 57 | 1007.8 |
| 20260506224757 | 7 | 84 | 3.2 | 19.3 | 0.00 | 0.00 | 0.00 | 57 | 1007.9 |
| 20260506224556 | 7 | 53 | 8.0 | 19.3 | 0.00 | 0.00 | 0.00 | 56 | 1007.8 |
| 20260506224459 | 7 | 119 | 12.9 | 19.3 | 0.00 | 0.00 | 0.00 | 57 | 1007.8 |
| 20260506224357 | 7 | 100 | 11.3 | 19.3 | 0.00 | 0.00 | 0.00 | 56 | 1007.8 |
| 20260506224257 | 8 | 119 | 16.1 | 19.3 | 0.00 | 0.00 | 0.00 | 57 | 1007.8 |
| 20260506224157 | 8 | 103 | 16.1 | 17.7 | 0.00 | 0.00 | 0.00 | 57 | 1007.8 |
| 20260506224057 | 8 | 40 | 9.7 | 17.7 | 0.00 | 0.00 | 0.00 | 57 | 1007.8 |
| 20260506224000 | 8 | 125 | 12.9 | 17.7 | 0.00 | 0.00 | 0.00 | 57 | 1007.8 |
| 20260506223857 | 7 | 138 | 4.8 | 9.7 | 0.00 | 0.00 | 0.00 | 58 | 1007.7 |
| 20260506223756 | 7 | 208 | 1.6 | 6.4 | 0.00 | 0.00 | 0.00 | 58 | 1007.7 |
| 20260506223657 | 7 | 207 | 3.2 | 6.4 | 0.00 | 0.00 | 0.00 | 58 | 1007.8 |
| 20260506223556 | 7 | 207 | 0.0 | 6.4 | 0.00 | 0.00 | 0.00 | 58 | 1007.7 |
| 20260506223357 | 7 | 207 | 1.6 | 6.4 | 0.00 | 0.00 | 0.00 | 60 | 1007.7 |
| 20260506223257 | 7 | 207 | 1.6 | 6.4 | 0.00 | 0.00 | 0.00 | 57 | 1007.7 |
| 20260506222958 | 7 | 191 | 6.4 | 6.4 | 0.00 | 0.00 | 0.00 | 58 | 1007.7 |
| 20260506222858 | 7 | 191 | 3.2 | 6.4 | 0.00 | 0.00 | 0.00 | 58 | 1007.8 |
| 20260506222657 | 7 | 191 | 3.2 | 8.0 | 0.00 | 0.00 | 0.00 | 58 | 1007.7 |
| 20260506222558 | 7 | 191 | 0.0 | 9.7 | 0.00 | 0.00 | 0.00 | 58 | 1007.7 |
| 20260506222459 | 7 | 191 | 6.4 | 9.7 | 0.00 | 0.00 | 0.00 | 57 | 1007.7 |
| 20260506222257 | 7 | 191 | 3.2 | 12.9 | 0.00 | 0.00 | 0.00 | 59 | 1007.7 |
| 20260506222157 | 7 | 191 | 0.0 | 12.9 | 0.00 | 0.00 | 0.00 | 59 | 1007.7 |
| 20260506221959 | 7 | 191 | 1.6 | 12.9 | 0.00 | 0.00 | 0.00 | 58 | 1007.7 |
| 20260506221856 | 7 | 191 | 8.0 | 12.9 | 0.00 | 0.00 | 0.00 | 57 | 1007.7 |
| 20260506221757 | 7 | 203 | 1.6 | 12.9 | 0.00 | 0.00 | 0.00 | 57 | 1007.7 |
| 20260506221659 | 7 | 221 | 4.8 | 12.9 | 0.00 | 0.00 | 0.00 | 58 | 1007.7 |
| 20260506221558 | 7 | 166 | 6.4 | 12.9 | 0.00 | 0.00 | 0.00 | 58 | 1007.7 |
| 20260506221500 | 7 | 154 | 9.7 | 9.7 | 0.00 | 0.00 | 0.00 | 60 | 1007.7 |
| 20260506221257 | 7 | 223 | 3.2 | 12.9 | 0.00 | 0.00 | 0.00 | 61 | 1007.6 |
| 20260506221156 | 7 | 288 | 1.6 | 12.9 | 0.00 | 0.00 | 0.00 | 60 | 1007.6 |
| 20260506221057 | 7 | 296 | 3.2 | 12.9 | 0.00 | 0.00 | 0.00 | 62 | 1007.7 |
| 20260506220959 | 7 | 301 | 6.4 | 12.9 | 0.00 | 0.00 | 0.00 | 64 | 1007.6 |
| 20260506220857 | 7 | 251 | 0.0 | 12.9 | 0.00 | 0.00 | 0.00 | 64 | 1007.7 |
| 20260506220757 | 7 | 251 | 3.2 | 12.9 | 0.00 | 0.00 | 0.00 | 64 | 1007.6 |
| 20260506220657 | 7 | 275 | 4.8 | 12.9 | 0.00 | 0.00 | 0.00 | 64 | 1007.6 |
| 20260506220557 | 7 | 321 | 3.2 | 12.9 | 0.00 | 0.00 | 0.00 | 63 | 1007.6 |
| 20260506220459 | 7 | 5 | 3.2 | 8.0 | 0.00 | 0.00 | 0.00 | 64 | 1007.6 |
| 20260506220258 | 7 | 355 | 4.8 | 8.0 | 0.00 | 0.00 | 0.00 | 64 | 1007.6 |
| 20260506220157 | 7 | 259 | 4.8 | 4.8 | 0.00 | 0.00 | 0.00 | 65 | 1007.6 |
| 20260506220058 | 7 | 259 | 1.6 | 6.4 | 0.00 | 0.00 | 0.00 | 65 | 1007.6 |
| 20260506215856 | 7 | 259 | 1.6 | 6.4 | 0.00 | 0.00 | 0.00 | 65 | 1007.6 |
| 20260506215657 | 7 | 259 | 0.0 | 6.4 | 0.00 | 0.00 | 0.00 | 65 | 1007.6 |
| 20260506215556 | 7 | 259 | 0.0 | 6.4 | 0.00 | 0.00 | 0.00 | 66 | 1007.6 |
| 20260506215458 | 7 | 259 | 1.6 | 8.0 | 0.00 | 0.00 | 0.00 | 64 | 1007.6 |
| 20260506215257 | 7 | 248 | 4.8 | 8.0 | 0.00 | 0.00 | 0.00 | 64 | 1007.6 |
| 20260506215158 | 7 | 240 | 0.0 | 8.0 | 0.00 | 0.00 | 0.00 | 64 | 1007.6 |
| 20260506215057 | 7 | 240 | 3.2 | 9.7 | 0.00 | 0.00 | 0.00 | 64 | 1007.6 |
| 20260506214958 | 7 | 240 | 1.6 | 9.7 | 0.00 | 0.00 | 0.00 | 64 | 1007.6 |
| 20260506214857 | 7 | 240 | 0.0 | 9.7 | 0.00 | 0.00 | 0.00 | 64 | 1007.6 |
| 20260506214757 | 7 | 240 | 3.2 | 9.7 | 0.00 | 0.00 | 0.00 | 63 | 1007.6 |
| 20260506214657 | 7 | 240 | 4.8 | 9.7 | 0.00 | 0.00 | 0.00 | 64 | 1007.5 |
| 20260506214557 | 7 | 237 | 6.4 | 9.7 | 0.00 | 0.00 | 0.00 | 64 | 1007.6 |
| 20260506214500 | 7 | 190 | 1.6 | 9.7 | 0.00 | 0.00 | 0.00 | 64 | 1007.5 |
| 20260506214358 | 7 | 190 | 1.6 | 9.7 | 0.00 | 0.00 | 0.00 | 63 | 1007.5 |
| 20260506214258 | 7 | 190 | 3.2 | 9.7 | 0.00 | 0.00 | 0.00 | 64 | 1007.5 |
| 20260506214157 | 7 | 324 | 1.6 | 9.7 | 0.00 | 0.00 | 0.00 | 65 | 1007.5 |
| 20260506213959 | 7 | 324 | 0.0 | 17.7 | 0.00 | 0.00 | 0.00 | 64 | 1007.5 |
| 20260506213857 | 7 | 324 | 1.6 | 17.7 | 0.00 | 0.00 | 0.00 | 64 | 1007.5 |
| 20260506213756 | 7 | 324 | 1.6 | 17.7 | 0.00 | 0.00 | 0.00 | 63 | 1007.5 |